[{"header": {"dx": 0.06612293990616946, "dy": 0.0552356325346848, "nx": 98, "ny": 59, "la1": 35.046912555036876, "la2": 31.78801023549047, "lo1": -121.43107172385933, "lo2": -114.95102361305473, "refTime": "2026041122", "parameterCategory": 1, "parameterNumber": 2}, "data": [11.53, 11.53, 10.94, 10.69, 9.5, 8.66, 8.66, 7.68, 5.99, 4.96, 4.38, 5.72, 7.41, 7.42, 7.68, 8.47, 7.9, 6.17, 5.95, 6.2, 6.5, 6.76, 6.7, 7.13, 7.78, 8.53, 8.53, 8.64, 8.64, 9.42, 9.88, 8.24, 7.24, 8.41, 9.6, 5.15, 1.96, 1.25, 4.22, 7.2, 9.75, 11.18, 11.28, 10.37, 10.12, 10.75, 12.96, 14.88, 14.3, 12.19, 9.8, 10.43, 10.75, 11.14, 12.22, 12.62, 12.89, 13.27, 13.25, 13.25, 12.86, 13.19, 13.19, 13.64, 14.33, 14.42, 14.42, 13.52, 12.27, 12.3, 12.97, 13.31, 13.11, 13.23, 13.58, 13.19, 12.74, 12.04, 13.05, 11.54, 11.33, 10.45, 9.64, 8.6, 9.26, 9.39, 8.49, 9.11, 10.18, 10.94, 9.69, 8.49, 6.79, 7.38, 7.63, 8.59, 8.3, 8.3, 11.53, 11.53, 10.94, 10.36, 10.69, 9.5, 8.94, 7.68, 6.18, 4.96, 4.24, 5.16, 6.67, 7.59, 8.82, 8.49, 6.77, 7.44, 6.2, 5.7, 6.4, 6.16, 6.16, 7.85, 6.7, 7.48, 7.78, 7.9, 7.9, 8.22, 8.51, 7.82, 6.85, 7.59, 8.58, 6.52, 0.0, -2.06, 2.69, 8.8, 11.84, 12.96, 7.78, 8.58, 11.7, 12.96, 14.55, 13.56, 11.18, 8.95, 9.6, 10.34, 11.14, 11.45, 11.8, 12.89, 13.27, 13.27, 13.25, 13.25, 13.19, 13.19, 13.52, 13.91, 13.91, 13.49, 12.23, 11.25, 11.54, 11.88, 12.9, 14.55, 15.14, 14.39, 13.59, 13.56, 12.74, 12.04, 13.05, 11.54, 11.33, 10.45, 9.64, 8.6, 9.26, 9.39, 8.49, 9.11, 10.18, 10.94, 9.69, 8.49, 6.79, 7.38, 7.63, 8.59, 8.3, 8.3, 11.53, 11.53, 10.94, 10.36, 10.69, 9.8, 9.22, 7.92, 5.85, 4.05, 3.23, 3.39, 6.92, 7.72, 8.38, 8.47, 7.36, 6.45, 5.43, 5.4, 4.8, 5.54, 6.5, 6.87, 7.44, 6.57, 6.7, 5.9, 6.59, 5.98, 5.36, 5.67, 6.36, 8.05, 8.22, 10.73, -3.65, -3.49, 2.39, 6.44, 12.52, 8.87, 9.23, 9.92, 12.59, 12.59, 12.59, 10.08, 8.84, 9.11, 10.18, 11.06, 11.54, 11.54, 11.8, 12.26, 12.89, 13.27, 13.25, 13.25, 13.19, 13.19, 13.64, 13.91, 12.98, 12.41, 11.17, 10.65, 11.79, 12.22, 14.13, 14.57, 15.59, 15.19, 13.56, 13.56, 13.47, 13.05, 13.15, 11.61, 11.36, 10.45, 9.21, 8.6, 9.29, 10.28, 9.39, 10.2, 11.03, 10.23, 8.66, 7.69, 7.03, 7.63, 8.3, 8.76, 9.17, 8.3, 12.11, 11.53, 11.29, 10.94, 10.69, 9.8, 10.1, 8.72, 5.85, 3.93, 3.23, 3.39, 6.21, 7.9, 8.35, 7.9, 6.45, 5.86, 5.2, 5.2, 4.8, 5.32, 5.77, 6.67, 7.1, 6.87, 5.14, 5.06, 4.99, 4.15, 3.82, 4.1, 4.24, 5.46, 6.9, 6.7, 12.52, 0.0, 2.82, 12.72, 8.93, 8.4, 9.54, 9.91, 10.13, 9.61, 8.31, 8.84, 9.11, 9.6, 10.07, 11.14, 11.2, 11.2, 11.95, 12.26, 12.89, 13.27, 13.43, 13.19, 13.19, 13.52, 13.49, 12.45, 11.76, 10.11, 10.33, 11.31, 11.74, 12.78, 14.03, 14.99, 15.19, 15.8, 14.94, 13.89, 13.15, 12.96, 15.04, 12.68, 11.4, 10.6, 9.16, 10.18, 10.58, 10.73, 10.62, 10.84, 10.94, 9.5, 7.66, 7.69, 7.78, 7.51, 8.42, 9.17, 9.17, 8.3, 12.11, 11.53, 11.29, 11.29, 10.69, 10.43, 10.1, 8.72, 5.85, 3.0, 2.45, 3.39, 5.98, 7.36, 7.59, 7.65, 5.98, 4.9, 4.48, 4.12, 4.39, 5.0, 5.32, 5.99, 5.0, 5.4, 3.82, 4.08, 4.08, 3.82, 2.82, 2.94, 3.06, 4.72, 6.45, 6.98, 8.22, 12.04, 15.43, 10.65, 6.9, 6.47, 7.15, 7.36, 8.18, 8.18, 8.99, 8.72, 9.6, 10.01, 10.43, 10.51, 10.84, 11.2, 12.26, 12.26, 12.89, 13.25, 13.75, 13.19, 13.11, 13.39, 12.45, 11.09, 8.57, 9.12, 10.19, 11.9, 13.4, 14.22, 13.89, 14.4, 14.62, 16.61, 16.84, 14.25, 13.59, 12.71, 14.6, 13.75, 11.52, 10.25, 9.76, 10.28, 11.18, 11.18, 11.95, 11.6, 9.48, 7.92, 7.69, 7.51, 7.51, 8.42, 8.85, 9.59, 9.48, 8.18, 12.11, 11.53, 11.9, 11.29, 10.69, 11.03, 10.75, 9.33, 6.29, 3.22, 2.37, 2.76, 5.0, 6.44, 7.9, 6.2, 5.2, 4.9, 3.47, 3.29, 4.65, 4.99, 4.55, 4.55, 3.04, 3.04, 3.04, 4.55, 4.39, 4.24, 3.65, 2.83, 3.25, 4.24, 7.11, 7.96, 9.17, 11.69, 14.28, 8.2, 4.15, 4.89, 6.4, 7.45, 8.06, 8.86, 9.66, 9.77, 9.6, 9.8, 9.48, 9.8, 10.51, 11.25, 11.9, 12.65, 12.86, 13.19, 13.35, 13.11, 12.98, 12.3, 11.53, 8.14, 7.32, 9.8, 10.71, 11.9, 13.73, 15.62, 16.74, 13.89, 15.03, 15.19, 16.96, 16.33, 15.05, 13.72, 12.48, 12.48, 10.7, 10.73, 10.73, 10.73, 11.18, 11.62, 12.46, 10.77, 8.72, 7.21, 7.44, 8.3, 8.72, 8.85, 9.59, 9.8, 8.87, 7.89, 12.11, 11.53, 11.53, 11.29, 11.64, 11.36, 10.75, 10.01, 6.8, 3.02, 1.58, 2.15, 4.99, 6.17, 6.45, 5.43, 4.48, 3.96, 3.6, 3.29, 4.81, 5.31, 4.24, 4.0, 3.58, 3.93, 2.15, 3.93, 6.65, 5.43, 4.23, 2.04, 2.13, 3.61, 5.64, 7.69, 9.5, 10.52, 9.48, 5.55, 4.11, 3.73, 6.2, 7.06, 8.16, 8.43, 9.92, 10.54, 9.89, 9.87, 10.12, 9.8, 10.51, 11.25, 11.64, 12.65, 12.79, 12.7, 12.98, 12.98, 12.09, 11.38, 7.69, 5.79, 7.4, 9.67, 11.48, 12.01, 12.84, 15.7, 16.78, 14.85, 14.54, 16.53, 15.49, 16.33, 15.91, 14.71, 13.41, 12.96, 11.18, 12.07, 11.62, 11.62, 11.62, 12.07, 11.64, 9.61, 7.92, 6.76, 7.63, 8.49, 9.56, 9.59, 9.48, 9.36, 8.45, 7.25, 11.72, 11.53, 11.9, 12.27, 12.0, 12.0, 11.44, 10.01, 7.59, 3.14, 1.63, 1.43, 3.25, 4.54, 6.21, 5.0, 4.48, 3.73, 2.32, 3.73, 4.24, 4.71, 2.91, 3.39, 3.39, 4.66, 2.5, 4.95, 8.18, 7.44, 3.82, 1.71, 1.77, 3.96, 5.43, 6.94, 8.54, 8.07, 7.56, 5.2, 4.55, 6.2, 8.53, 8.47, 8.93, 7.95, 8.84, 9.77, 10.05, 10.19, 9.06, 10.12, 10.51, 10.92, 11.28, 11.66, 11.83, 11.92, 11.79, 11.61, 10.5, 7.43, 5.18, 5.83, 8.03, 10.59, 12.33, 12.5, 13.63, 14.46, 16.56, 15.94, 14.84, 15.87, 15.18, 14.75, 15.93, 14.71, 13.86, 12.96, 12.07, 12.07, 11.62, 11.28, 12.07, 11.6, 9.13, 8.2, 7.2, 8.21, 8.16, 9.23, 9.96, 9.89, 9.67, 8.87, 8.45, 7.25, 12.11, 12.5, 11.9, 12.27, 12.65, 12.0, 11.44, 11.44, 7.93, 4.28, 1.76, 0.85, 1.83, 4.1, 5.6, 5.08, 2.81, 2.54, 2.63, 2.81, 4.24, 2.2, 3.25, 3.47, 3.04, 2.28, 1.93, 4.98, 8.05, 7.13, 5.15, 2.5, 2.5, 6.2, 6.4, 8.22, 7.59, 6.7, 6.58, 6.24, 7.28, 8.31, 8.31, 6.87, 6.4, 6.45, 7.44, 8.46, 10.05, 10.54, 10.83, 9.7, 10.01, 10.51, 10.58, 10.63, 10.29, 10.43, 10.43, 11.21, 8.53, 4.52, 4.91, 6.42, 8.25, 10.59, 13.04, 13.49, 13.87, 14.56, 15.27, 16.48, 16.15, 14.97, 14.06, 14.6, 14.71, 13.86, 13.86, 16.54, 13.02, 12.52, 12.07, 11.62, 11.21, 9.5, 7.82, 7.62, 7.51, 8.53, 8.9, 9.57, 8.9, 9.67, 9.53, 9.24, 8.18, 7.63, 12.5, 12.5, 12.9, 12.27, 12.65, 12.65, 12.16, 11.44, 9.42, 5.6, 2.82, 2.16, 2.37, 3.98, 4.87, 4.71, 1.77, 1.63, -0.0, 2.13, 2.06, 2.13, 2.28, 4.52, 4.38, 4.15, 1.75, 3.98, 5.48, 7.36, 5.31, 3.16, 4.81, 6.9, 7.54, 8.38, 7.27, 6.01, 7.44, 9.17, 8.61, 9.17, 7.72, 6.59, 5.95, 6.24, 7.1, 8.72, 8.95, 9.49, 9.77, 9.66, 9.39, 8.99, 8.18, 8.31, 8.05, 8.85, 9.52, 8.94, 4.81, 4.1, 5.65, 7.27, 9.09, 11.37, 13.04, 13.05, 13.02, 13.99, 14.65, 14.75, 15.44, 14.08, 14.03, 13.83, 12.96, 12.52, 12.96, 12.27, 7.8, 8.93, 9.17, 10.41, 9.84, 8.32, 7.93, 8.42, 8.53, 8.93, 9.57, 8.93, 8.85, 8.87, 9.53, 8.95, 8.45, 7.63, 13.07, 12.5, 12.9, 12.9, 12.27, 12.65, 12.16, 11.8, 9.13, 5.6, 4.28, 3.41, 3.85, 4.38, 5.63, 3.47, 2.28, 1.68, 2.15, 5.09, 5.51, 5.51, 7.6, 6.6, 5.48, 4.48, 2.02, 2.02, 5.8, 8.58, 8.05, 7.19, 5.77, 7.44, 8.22, 9.08, 7.9, 7.15, 8.22, 9.8, 10.69, 10.02, 8.53, 6.45, 5.32, 5.95, 6.41, 6.98, 7.36, 7.38, 7.45, 8.25, 8.12, 7.15, 6.47, 6.47, 7.34, 8.86, 7.78, 5.78, 3.32, 4.82, 6.52, 7.34, 9.18, 11.4, 12.19, 12.02, 11.59, 11.14, 11.6, 11.79, 12.86, 13.28, 14.03, 14.3, 12.93, 13.34, 13.19, 6.8, 7.42, 10.08, 11.06, 10.12, 9.8, 8.76, 9.17, 9.23, 9.57, 9.92, 9.56, 8.97, 8.67, 9.32, 9.36, 8.95, 8.18, 7.63, 13.07, 13.07, 12.5, 12.9, 12.9, 12.27, 12.65, 11.8, 9.8, 7.19, 4.81, 3.85, 5.31, 5.81, 4.71, 4.39, 4.39, 5.63, 4.95, 8.74, 8.28, 8.05, 12.22, 11.38, 8.05, 5.8, 5.6, 2.82, 6.17, 6.32, 6.95, 7.59, 7.59, 7.13, 8.37, 7.81, 7.68, 8.22, 8.53, 10.02, 10.94, 10.94, 8.85, 6.45, 5.7, 4.56, 5.2, 5.2, 4.9, 5.27, 4.87, 5.83, 5.61, 4.06, 4.14, 4.82, 7.28, 9.92, 8.95, 4.38, 3.26, 4.94, 6.52, 7.34, 8.07, 9.51, 10.86, 10.65, 10.46, 10.85, 11.88, 12.37, 11.8, 12.33, 13.37, 13.36, 13.09, 13.99, 7.28, 7.59, 9.09, 10.4, 11.38, 11.38, 11.38, 12.15, 11.6, 10.91, 10.9, 10.87, 10.04, 9.34, 8.42, 9.02, 8.3, 8.18, 7.63, 7.38, 13.07, 13.07, 12.5, 12.9, 12.9, 12.9, 12.27, 11.44, 10.12, 7.44, 6.0, 5.15, 5.81, 5.99, 6.8, 6.8, 6.88, 6.43, 6.94, 8.1, 9.48, 10.37, 11.12, 11.12, 11.12, 10.73, 10.01, 8.85, 9.3, 7.15, 8.43, 8.59, 9.09, 8.73, 8.37, 7.47, 6.95, 7.9, 7.9, 9.17, 9.88, 9.76, 7.85, 5.32, 4.4, 2.95, 2.82, 3.82, 3.82, 3.96, 3.19, 3.96, 2.47, 1.67, 2.65, 4.12, 6.1, 11.73, 10.84, 4.0, 2.45, 5.01, 6.59, 6.59, 5.8, 6.46, 8.53, 10.06, 10.78, 12.34, 13.9, 13.91, 13.23, 11.92, 11.62, 13.33, 14.84, 9.49, 8.86, 9.87, 10.37, 11.47, 11.49, 12.3, 12.15, 12.65, 13.1, 12.65, 12.62, 12.79, 12.07, 9.3, 8.12, 8.42, 8.01, 7.78, 7.38, 7.38, 13.07, 13.07, 13.07, 12.79, 13.19, 13.19, 12.27, 11.9, 10.12, 8.31, 6.2, 5.31, 7.16, 8.06, 8.29, 8.53, 9.09, 8.43, 8.18, 10.12, 11.17, 12.27, 13.7, 13.7, 14.9, 13.59, 13.44, 13.15, 11.6, 10.8, 7.27, 7.59, 9.3, 8.37, 8.37, 7.13, 6.18, 6.77, 7.74, 8.93, 9.3, 8.49, 6.98, 5.0, 3.11, 2.82, 2.7, 2.6, 2.71, 4.08, 4.58, 3.07, 1.58, -0.0, 1.64, 2.94, 7.1, 13.26, 12.8, 5.11, 1.58, 4.73, 5.94, 5.94, 4.95, 5.83, 6.6, 7.8, 10.88, 12.42, 14.54, 19.3, 15.43, 13.01, 10.24, 11.64, 9.67, 10.19, 12.23, 12.72, 12.5, 12.98, 12.76, 12.72, 12.16, 13.27, 12.65, 11.99, 11.2, 11.81, 12.07, 9.64, 7.82, 7.64, 7.44, 7.51, 7.78, 7.63, 13.07, 13.07, 13.28, 12.79, 12.79, 12.65, 12.65, 12.27, 11.44, 8.58, 6.95, 6.95, 7.16, 8.06, 8.53, 8.77, 9.35, 10.3, 10.02, 11.06, 12.65, 13.59, 14.11, 14.9, 15.65, 15.65, 15.65, 14.75, 14.3, -0.0, 4.1, 5.75, 7.9, 8.03, 6.42, 5.46, 5.7, 6.18, 9.3, 8.34, 8.15, 7.26, 5.0, 4.8, 2.58, 2.58, 2.7, 2.7, 3.87, 4.6, 4.8, 3.25, 1.69, -0.0, 1.67, 4.2, 7.27, 10.8, 12.3, 6.6, 2.53, 4.1, 5.63, 5.81, 5.48, 7.16, 7.82, 8.78, 9.17, 12.22, 14.2, 17.08, 22.48, 14.47, 9.88, 8.51, 10.73, 13.91, 14.37, 14.82, 14.51, 14.46, 13.59, 12.66, 12.14, 13.19, 12.79, 11.6, 11.41, 11.69, 11.17, 9.97, 7.82, 7.44, 7.24, 7.38, 7.25, 7.25, 13.28, 13.28, 12.79, 12.79, 12.79, 12.27, 12.79, 12.9, 11.8, 8.58, 6.95, 7.16, 7.82, 9.12, 9.66, 10.76, 10.47, 11.7, 11.7, 11.38, 13.58, 14.84, 15.43, 15.65, 16.09, 16.09, 15.65, 15.65, 14.75, -0.0, 3.36, 6.88, 7.24, 7.27, 6.14, 4.12, 5.63, 6.95, 8.73, 8.38, 5.98, 5.69, 4.23, 3.87, 2.58, 2.46, 2.46, 4.0, 4.0, 4.83, 4.4, 4.83, 3.65, 4.2, 4.96, 7.44, 8.72, 8.55, 8.15, 7.19, 5.75, 7.44, 8.22, 8.53, 8.22, 9.27, 7.9, 9.5, 10.01, 11.5, 13.35, 17.78, 18.03, 20.54, 8.7, 9.92, 13.81, 15.66, 16.09, 16.12, 15.72, 15.03, 13.75, 12.15, 11.27, 10.32, 11.92, 12.2, 11.9, 11.44, 10.25, 6.97, 7.36, 7.63, 6.53, 6.77, 7.44, 7.44, 13.28, 13.28, 12.79, 12.39, 12.79, 12.79, 12.79, 12.9, 11.8, 8.85, 8.18, 7.16, 8.85, 9.12, 10.18, 11.38, 11.06, 10.76, 10.76, 13.23, 15.07, 15.93, 16.09, 15.65, 14.75, 10.75, 0.0, 0.0, 0.0, -0.0, 4.3, 8.29, 8.18, 6.44, 3.6, 4.12, 4.74, 5.29, 5.29, 6.42, 4.8, 3.81, 3.87, 3.45, 3.7, 3.7, 4.0, 4.96, 5.59, 5.59, 5.36, 5.36, 5.63, 5.9, 7.87, 7.87, 8.43, 7.68, 8.24, 8.82, 9.46, 8.93, 9.2, 9.96, 10.18, 8.15, 8.18, 8.18, 9.86, 12.62, 16.17, 16.83, 17.78, 15.86, 12.97, 12.13, 15.73, 17.46, 17.73, 17.1, 16.48, 15.47, 14.22, 11.69, 11.02, 10.6, 10.8, 10.73, 10.99, 10.54, 9.8, 7.73, 7.12, 7.54, 7.63, 6.67, 7.69, 7.69, 13.44, 13.02, 13.02, 12.62, 12.62, 12.79, 12.79, 12.5, 11.8, 8.85, 8.85, 8.85, 8.85, 9.89, 10.75, 11.2, 9.89, 9.66, 11.7, 14.07, 15.53, 15.65, 13.59, 13.7, 14.75, 4.81, 0.0, 0.0, 16.09, 5.23, 6.72, 8.03, 9.17, 7.82, 5.45, 3.55, 3.35, 3.65, 5.29, 5.29, 4.83, 4.0, 3.8, 4.0, 4.0, 5.21, 4.96, 6.32, 6.98, 6.98, 6.32, 5.36, 5.36, 5.36, 7.51, 8.05, 8.43, 8.43, 9.2, 9.32, 9.7, 10.27, 9.6, 9.75, 9.55, 8.22, 7.81, 8.06, 9.21, 12.94, 15.74, 16.76, 17.53, 16.74, 14.57, 14.24, 16.1, 18.05, 18.05, 17.03, 16.45, 15.99, 14.46, 11.88, 11.9, 10.85, 10.37, 10.03, 10.3, 10.12, 9.24, 8.05, 6.77, 6.9, 7.74, 8.31, 8.29, 8.29, 13.44, 13.02, 12.62, 12.62, 12.62, 12.39, 12.79, 12.5, 10.43, 8.85, 8.85, 8.85, 9.6, 9.6, 9.6, 11.38, 8.31, 9.39, 11.77, 13.29, 15.05, 11.06, 4.05, 9.77, 10.43, 14.79, 11.2, 11.7, 10.89, 7.16, 8.68, 8.93, 9.92, 8.53, 8.31, 5.32, 4.96, 4.96, 6.42, 6.71, 6.3, 6.01, 4.83, 5.59, 5.21, 6.64, 6.64, 6.98, 6.98, 6.98, 6.64, 6.32, 5.63, 6.32, 6.64, 7.33, 7.68, 8.03, 8.93, 9.32, 9.32, 9.86, 10.27, 9.21, 9.04, 8.22, 7.53, 8.33, 9.7, 11.88, 14.53, 17.26, 18.86, 19.31, 17.62, 16.43, 16.22, 17.39, 18.98, 19.51, 15.77, 14.71, 14.39, 13.42, 13.33, 12.13, 11.03, 10.19, 9.62, 8.79, 9.24, 8.45, 7.63, 6.9, 8.43, 9.39, 9.24, 9.24, 13.44, 13.44, 13.02, 13.02, 13.02, 12.87, 13.28, 12.5, 10.43, 9.6, 8.85, 9.6, 9.6, 11.2, 11.2, 10.12, 10.43, 8.31, 11.06, 11.68, 12.92, 5.49, 4.37, 6.52, 8.93, 10.59, 11.7, 8.85, 9.33, 9.61, 9.66, 9.66, 9.66, 9.61, 9.35, 8.87, 8.22, 7.59, 7.21, 6.52, 6.45, 6.79, 7.15, 6.73, 6.73, 8.03, 7.33, 7.81, 7.81, 6.98, 6.32, 5.59, 5.59, 5.59, 6.01, 6.79, 7.27, 7.06, 8.55, 9.7, 9.86, 9.45, 9.6, 9.2, 7.76, 8.22, 8.37, 8.99, 9.97, 11.66, 13.99, 18.32, 20.23, 20.28, 19.22, 17.35, 15.91, 15.91, 16.52, 18.85, 19.02, 16.54, 15.07, 14.39, 13.2, 11.88, 11.12, 10.9, 9.57, 8.46, 8.59, 8.31, 7.49, 7.74, 8.85, 10.18, 10.43, 10.43, 13.02, 13.44, 13.02, 13.02, 13.02, 12.87, 13.28, 12.13, 11.2, 9.6, 9.6, 9.6, 10.43, 11.2, 11.54, 11.54, 10.75, 8.87, 8.3, 10.75, 10.87, 7.82, 7.82, 8.83, 9.73, 11.06, 10.75, 11.06, 11.38, 10.76, 10.76, 10.76, 10.76, 10.76, 9.61, 9.73, 9.48, 8.22, 8.93, 7.44, 7.28, 7.64, 8.0, 7.47, 6.64, 8.38, 7.33, 8.4, 8.4, 6.98, 5.59, 5.59, 5.59, 5.59, 6.64, 5.82, 6.64, 7.4, 9.32, 8.55, 8.55, 9.2, 9.2, 9.2, 8.0, 8.4, 9.33, 9.96, 10.73, 11.5, 13.64, 17.39, 20.0, 19.65, 18.1, 16.12, 15.11, 15.49, 15.54, 15.18, 17.46, 17.81, 15.71, 13.75, 13.37, 12.39, 11.8, 11.34, 10.84, 8.16, 7.78, 8.45, 8.84, 8.66, 9.66, 10.43, 10.81, 10.81, 13.02, 13.02, 13.02, 13.02, 13.02, 12.87, 12.66, 12.13, 11.2, 9.6, 9.6, 10.43, 11.2, 11.2, 12.0, 12.37, 11.68, 10.99, 9.8, 11.33, 11.38, 10.47, 11.06, 10.02, 11.7, 13.05, 12.71, 11.06, 11.06, 11.38, 11.7, 11.7, 11.7, 11.7, 11.7, 12.36, 10.43, 9.17, 8.59, 7.9, 6.87, 7.21, 7.13, 7.13, 6.79, 6.06, 8.18, 8.43, 7.33, 5.59, 4.0, 4.96, 4.96, 5.59, 5.86, 6.64, 6.18, 7.27, 8.55, 8.18, 7.96, 8.6, 8.4, 8.4, 8.4, 8.34, 8.34, 8.93, 9.52, 10.73, 12.09, 15.07, 18.05, 17.98, 11.09, 12.45, 16.12, 17.09, 17.26, 16.09, 15.41, 15.35, 15.71, 14.16, 13.59, 13.2, 11.68, 11.38, 10.65, 8.66, 7.63, 8.29, 9.73, 9.73, 10.48, 10.81, 11.25, 11.25, 13.02, 13.02, 13.02, 13.37, 13.37, 13.27, 12.66, 12.13, 11.2, 9.6, 10.75, 10.75, 11.2, 12.0, 12.0, 12.37, 12.37, 11.33, 10.99, 11.33, 12.36, 12.02, 11.33, 11.68, 11.38, 13.05, 13.39, 13.05, 12.71, 12.02, 12.02, 12.36, 12.36, 12.36, 12.36, 12.36, 11.06, 9.48, 8.22, 8.24, 7.56, 7.21, 7.64, 6.79, 6.45, 5.69, 8.43, 7.33, 5.31, 4.71, 4.96, 4.96, 5.59, 5.59, 5.59, 6.64, 6.18, 7.27, 8.24, 6.91, 7.28, 7.96, 7.58, 7.96, 7.87, 8.23, 8.23, 8.23, 8.82, 8.69, 9.76, 11.52, 20.32, 15.19, 9.6, 8.73, 12.47, 15.2, 16.99, 16.99, 15.54, 14.79, 13.91, 14.05, 14.79, 12.97, 10.68, 10.22, 11.35, 11.35, 8.95, 9.4, 10.48, 10.48, 10.52, 11.18, 10.81, 10.81, 13.02, 13.02, 13.37, 13.37, 13.37, 13.27, 12.66, 12.13, 11.2, 10.43, 10.75, 11.54, 12.37, 12.51, 12.89, 12.37, 12.37, 11.33, 11.33, 11.33, 12.02, 12.36, 11.68, 10.99, 10.43, 11.38, 12.01, 13.39, 13.39, 12.71, 13.39, 12.65, 13.02, 13.02, 13.02, 13.02, 12.22, 10.82, 9.42, 8.38, 7.9, 7.9, 8.0, 7.28, 6.11, 5.77, 7.68, 6.64, 5.31, 5.59, 5.59, 5.59, 5.31, 5.31, 5.31, 5.59, 5.53, 6.48, 7.59, 6.95, 6.18, 6.91, 7.51, 7.87, 7.87, 7.74, 8.07, 9.46, 8.23, 8.47, 9.2, 16.84, 21.41, 20.67, 17.14, 14.19, 12.75, 12.07, 14.3, 15.07, 16.07, 14.75, 14.28, 14.36, 13.23, 10.68, 10.22, 9.78, 10.89, 12.51, 11.22, 10.81, 10.52, 10.55, 10.55, 10.19, 10.19, 10.19, 13.37, 13.37, 13.37, 13.37, 12.94, 12.94, 13.15, 12.13, 10.86, 10.43, 10.75, 12.37, 12.37, 12.89, 12.89, 12.37, 12.0, 12.0, 11.33, 11.68, 12.02, 12.71, 12.71, 13.02, 11.52, 11.87, 12.92, 13.26, 13.26, 14.13, 13.76, 14.39, 13.99, 13.59, 12.65, 12.65, 11.87, 11.52, 9.77, 8.38, 8.03, 8.18, 8.15, 8.15, 6.91, 6.55, 6.82, 6.7, 6.7, 6.7, 6.44, 6.95, 5.69, 5.31, 5.59, 5.59, 5.59, 5.24, 6.95, 6.95, 6.95, 6.45, 7.51, 7.87, 8.23, 7.74, 8.07, 8.82, 8.82, 9.2, 11.11, 14.31, 19.25, 19.86, 20.7, 19.19, 18.32, 16.09, 13.27, 10.85, 13.7, 14.51, 15.08, 14.6, 9.44, 8.83, 9.25, 9.52, 10.61, 11.53, 14.02, 13.18, 11.17, 10.63, 9.57, 9.57, 9.57, 9.57, 13.37, 13.37, 12.94, 12.94, 12.94, 13.19, 13.59, 12.13, 11.2, 10.43, 10.43, 12.37, 12.37, 13.27, 13.27, 12.89, 12.0, 12.0, 11.33, 11.68, 12.02, 12.71, 14.13, 13.76, 13.39, 11.87, 12.22, 12.92, 13.26, 14.57, 15.19, 14.79, 14.79, 13.99, 13.59, 13.59, 13.59, 11.87, 10.82, 9.58, 8.82, 9.2, 8.18, 8.15, 8.0, 7.6, 7.2, 7.35, 7.35, 7.95, 7.37, 5.37, 4.6, 4.6, 5.59, 5.86, 6.32, 6.01, 5.59, 6.95, 7.9, 8.24, 6.79, 7.51, 7.87, 7.74, 7.59, 8.35, 9.43, 10.32, 11.11, 13.8, 15.56, 18.8, 21.0, 20.47, 19.29, 18.85, 15.53, 8.75, 10.59, 13.34, 15.65, 8.72, 6.52, 8.43, 9.25, 10.05, 10.95, 11.38, 13.46, 14.08, 12.14, 11.25, 10.28, 10.01, 9.57, 9.57, 12.94, 12.94, 12.94, 12.94, 13.19, 13.63, 13.59, 13.57, 11.2, 10.43, 10.43, 12.37, 12.89, 13.27, 13.27, 12.89, 12.0, 12.0, 12.0, 11.68, 12.02, 12.36, 13.76, 14.13, 14.79, 14.39, 12.22, 11.38, 13.23, 14.18, 14.18, 14.94, 14.94, 15.36, 14.18, 13.8, 13.42, 12.22, 11.87, 11.53, 10.4, 8.55, 8.54, 8.15, 8.0, 7.76, 7.76, 7.63, 7.53, 7.4, 6.28, 5.15, 4.26, 4.56, 5.15, 6.01, 6.98, 5.69, 5.69, 6.32, 8.24, 7.76, 8.55, 7.13, 7.59, 6.48, 7.59, 8.79, 9.43, 10.96, 12.04, 12.68, 13.99, 16.53, 18.18, 21.94, 21.02, 17.33, 16.05, 11.45, 9.77, 14.3, 4.37, 3.93, 6.0, 8.1, 9.77, 10.95, 11.47, 11.47, 12.08, 14.04, 13.18, 11.6, 11.25, 11.28, 11.28, 11.28, 12.94, 12.94, 12.94, 13.19, 13.19, 13.63, 13.59, 13.57, 12.51, 11.2, 11.2, 12.37, 12.89, 13.27, 13.27, 13.27, 12.0, 12.0, 12.37, 12.73, 12.73, 12.36, 13.76, 14.36, 15.2, 15.2, 14.39, 13.99, 13.42, 13.8, 14.94, 14.94, 14.39, 12.87, 12.87, 11.38, 12.57, 12.22, 12.22, 12.27, 10.79, 8.93, 8.15, 8.4, 8.58, 8.58, 8.91, 8.06, 7.74, 6.7, 5.15, 4.26, 4.83, 5.24, 5.24, 5.69, 6.63, 6.01, 5.69, 6.79, 7.81, 8.18, 8.18, 7.4, 6.48, 7.9, 8.79, 9.03, 9.9, 10.85, 12.53, 13.15, 12.83, 14.16, 16.48, 19.08, 23.6, 20.05, 16.39, 11.61, 10.73, 5.75, 0.86, 3.69, 6.9, 8.56, 9.73, 11.47, 12.22, 12.26, 12.62, 13.26, 13.85, 12.07, 12.22, 13.02, 13.42, 13.42, 12.94, 12.94, 13.19, 13.19, 13.19, 13.63, 13.59, 13.57, 12.51, 11.2, 11.2, 12.37, 12.89, 13.27, 13.27, 13.27, 12.89, 12.0, 12.37, 12.73, 12.73, 13.58, 13.97, 15.2, 15.49, 16.15, 15.71, 15.04, 13.99, 13.99, 14.94, 15.61, 13.39, 11.38, 9.66, 11.38, 10.05, 11.38, 11.06, 12.02, 10.65, 8.59, 7.64, 8.18, 7.56, 7.44, 9.33, 9.45, 6.01, 5.15, 4.26, 4.83, 5.3, 5.24, 5.37, 5.77, 6.01, 6.32, 5.69, 6.79, 7.15, 7.44, 7.51, 7.27, 7.27, 8.38, 9.04, 9.03, 9.66, 10.45, 11.8, 13.15, 13.28, 12.52, 14.3, 16.99, 18.57, 19.86, 20.96, 20.34, 14.36, 7.64, 2.0, 3.39, 7.25, 9.1, 10.18, 11.64, 12.27, 13.25, 12.86, 13.43, 13.85, 13.02, 12.76, 13.65, 13.65, 13.65, 13.19, 13.19, 13.19, 13.19, 13.19, 13.63, 13.63, 13.57, 12.51, 11.2, 11.2, 12.0, 12.89, 13.27, 13.27, 13.27, 13.27, 12.37, 12.37, 13.2, 13.58, 13.2, 13.58, 14.79, 15.07, 16.15, 15.78, 15.27, 15.27, 15.18, 15.43, 15.18, 8.68, 7.0, 8.05, 9.77, 10.05, 10.05, 11.06, 11.06, 11.33, 9.62, 7.9, 6.52, 5.77, 7.64, 10.09, 7.85, 5.43, 5.46, 4.83, 5.69, 5.69, 5.69, 5.77, 6.11, 6.55, 6.11, 6.52, 6.55, 7.2, 7.58, 7.51, 7.06, 7.76, 8.42, 8.68, 10.61, 8.8, 9.06, 10.41, 12.21, 14.93, 15.53, 15.17, 18.29, 18.74, 16.15, 19.0, 23.06, 19.51, 9.32, 6.42, 5.7, 6.95, 10.63, 11.83, 12.98, 13.57, 13.15, 12.92, 13.91, 13.84, 13.83, 12.33, 13.1, 13.87, 13.87, 13.19, 13.19, 13.19, 13.19, 13.19, 13.63, 13.63, 13.57, 12.51, 11.2, 12.0, 12.0, 13.59, 13.99, 14.3, 13.99, 13.99, 13.2, 13.2, 13.2, 13.2, 13.2, 13.2, 14.38, 15.07, 15.27, 15.41, 14.99, 14.9, 15.11, 15.53, 14.53, 10.75, 8.43, 8.43, 8.43, 8.68, 10.02, 10.02, 11.06, 10.75, 9.48, 7.9, 6.64, 6.18, 8.18, 10.3, 8.83, 8.24, 7.59, 6.11, 5.69, 5.69, 6.11, 6.11, 6.18, 6.55, 7.37, 7.76, 7.76, 6.99, 7.2, 7.15, 8.21, 8.21, 7.82, 7.81, 9.86, 9.86, 9.86, 8.72, 9.6, 13.52, 17.81, 17.4, 19.18, 19.22, 15.97, 15.9, 20.43, 20.63, 15.99, 11.05, 8.86, 8.76, 10.27, 10.8, 14.19, 13.76, 13.65, 13.65, 13.53, 13.35, 13.42, 13.07, 13.04, 13.49, 13.49, 13.19, 13.19, 13.19, 13.19, 13.19, 13.63, 13.63, 13.57, 13.19, 12.0, 12.0, 12.0, 12.81, 13.59, 14.3, 13.99, 13.99, 13.99, 13.58, 13.2, 13.59, 13.59, 13.99, 14.65, 14.65, 15.27, 15.27, 14.56, 16.05, 13.96, 14.23, 12.73, 10.75, 10.75, 9.44, 9.73, 9.73, 10.02, 10.02, 10.02, 11.06, 10.12, 9.08, 7.68, 8.18, 9.32, 10.24, 10.73, 10.01, 7.64, 6.18, 6.18, 5.69, 5.84, 5.84, 5.84, 6.6, 6.99, 7.37, 8.0, 7.76, 7.2, 8.17, 8.0, 8.58, 8.17, 7.76, 9.45, 10.0, 11.03, 9.36, 8.95, 12.45, 17.62, 20.78, 22.35, 17.43, 12.39, 14.55, 17.51, 19.43, 17.59, 15.34, 12.66, 12.37, 11.96, 11.62, 10.7, 13.86, 13.38, 13.38, 13.18, 12.87, 13.33, 13.07, 12.64, 12.72, 12.72, 13.19, 13.19, 13.19, 13.19, 13.19, 13.63, 13.63, 13.57, 13.19, 12.0, 12.0, 12.81, 12.81, 13.19, 14.3, 14.3, 13.99, 13.99, 13.99, 13.59, 13.99, 13.99, 13.99, 14.23, 14.65, 14.84, 15.27, 14.9, 13.7, 15.07, 12.13, 12.16, 12.52, 11.88, 11.68, 11.68, 10.75, 10.75, 11.06, 11.06, 11.06, 10.43, 9.77, 8.55, 8.55, 9.7, 10.88, 12.14, 10.09, 7.07, 6.01, 5.69, 5.15, 4.87, 6.18, 6.18, 6.55, 6.99, 7.37, 8.0, 8.17, 7.2, 8.4, 7.6, 8.17, 7.76, 7.76, 8.06, 10.05, 11.45, 10.32, 10.18, 11.05, 15.12, 21.28, 25.64, 15.05, 11.96, 14.13, 16.27, 17.59, 17.58, 16.89, 15.84, 14.11, 14.3, 12.93, 11.46, 13.86, 12.93, 12.83, 12.53, 12.56, 12.94, 13.19, 13.25, 12.33, 12.33, 12.75, 12.75, 13.19, 13.19, 13.19, 13.63, 13.59, 13.57, 12.79, 12.0, 12.0, 12.81, 12.81, 13.19, 13.89, 14.3, 14.3, 13.59, 13.59, 13.99, 13.99, 13.99, 13.99, 14.23, 14.42, 15.27, 15.34, 14.9, 14.9, 14.13, 13.48, 12.9, 12.51, 12.89, 13.2, 12.65, 12.65, 11.68, 12.02, 12.02, 12.02, 12.65, 11.16, 8.93, 9.45, 10.46, 11.28, 11.5, 9.42, 6.64, 5.72, 5.72, 4.94, 5.15, 5.69, 6.18, 6.55, 6.99, 6.99, 7.6, 8.3, 7.28, 7.28, 8.0, 7.2, 7.76, 7.76, 8.17, 9.97, 10.6, 10.0, 11.21, 12.01, 13.86, 19.14, 23.48, 19.15, 13.76, 14.29, 15.18, 16.83, 16.74, 16.6, 16.53, 17.02, 14.27, 13.41, 11.62, 12.81, 12.24, 11.79, 11.92, 11.88, 12.81, 13.33, 13.19, 13.19, 13.19, 12.75, 12.75, 13.19, 13.19, 13.19, 13.19, 13.59, 13.57, 12.79, 12.0, 12.0, 12.81, 12.81, 13.81, 14.23, 14.3, 13.89, 13.89, 13.59, 13.99, 13.99, 13.99, 13.99, 14.84, 14.42, 14.9, 15.34, 14.9, 14.84, 14.42, 13.99, 13.07, 12.79, 12.79, 12.81, 13.97, 13.2, 12.65, 12.65, 13.58, 13.58, 13.2, 12.03, 10.88, 9.97, 10.41, 10.68, 10.04, 8.53, 6.58, 5.72, 5.46, 4.94, 6.01, 5.69, 6.18, 6.99, 6.99, 7.2, 7.6, 8.0, 7.67, 7.28, 8.0, 8.0, 8.4, 7.76, 8.72, 9.24, 10.18, 9.74, 11.62, 12.94, 14.21, 15.99, 17.29, 19.02, 18.52, 15.65, 16.09, 15.65, 16.0, 15.78, 15.13, 15.01, 12.39, 12.51, 13.44, 12.52, 12.33, 12.33, 12.45, 12.45, 12.22, 12.92, 13.35, 13.42, 13.42, 12.75, 12.75, 13.19, 13.19, 13.19, 13.19, 13.59, 13.53, 13.39, 12.42, 12.0, 12.81, 12.81, 13.56, 13.81, 14.23, 14.42, 13.89, 13.89, 13.99, 13.99, 13.99, 14.84, 14.84, 15.34, 14.9, 14.9, 14.84, 14.4, 13.99, 13.99, 13.81, 13.39, 12.98, 13.39, 13.15, 13.56, 13.2, 13.2, 13.2, 13.2, 13.2, 12.79, 11.3, 9.97, 9.89, 9.6, 8.22, 7.73, 5.54, 5.21, 5.72, 5.46, 6.32, 6.18, 6.55, 6.99, 6.99, 7.2, 7.95, 8.37, 7.35, 8.06, 7.53, 8.06, 9.03, 8.48, 9.06, 9.49, 9.24, 10.6, 10.43, 14.53, 15.27, 15.43, 14.97, 16.37, 17.72, 20.28, 20.87, 18.73, 15.08, 13.21, 12.44, 12.65, 12.56, 12.33, 12.74, 12.74, 13.15, 12.87, 13.23, 13.01, 13.01, 12.79, 13.23, 13.4, 13.4, 12.51, 12.51, 13.19, 13.19, 13.19, 13.19, 13.63, 13.59, 13.57, 12.42, 12.42, 12.81, 13.56, 13.56, 13.81, 14.75, 14.23, 14.23, 14.23, 13.99, 14.3, 14.84, 14.84, 15.34, 14.9, 14.9, 14.9, 14.84, 14.4, 13.99, 13.81, 13.81, 13.39, 12.98, 12.98, 12.98, 12.79, 12.81, 12.81, 13.2, 13.2, 13.2, 12.39, 10.68, 8.37, 8.63, 8.55, 7.15, 5.2, 5.2, 5.69, 5.98, 6.95, 6.64, 6.52, 6.99, 6.99, 6.99, 7.95, 7.53, 8.37, 8.48, 8.38, 7.81, 8.06, 9.46, 8.06, 8.99, 9.06, 8.82, 9.24, 10.43, 13.99, 16.42, 16.15, 14.19, 14.06, 16.19, 21.0, 22.4, 19.44, 14.69, 11.66, 11.45, 11.47, 11.6, 11.99, 12.15, 12.87, 13.28, 13.65, 13.44, 13.21, 13.31, 12.86, 12.43, 12.88, 13.23, 12.51, 12.51, 12.51, 13.19, 13.23, 13.01, 13.63, 13.37, 13.7, 13.39, 12.42, 13.39, 13.39, 13.39, 13.81, 14.75, 14.75, 14.75, 14.23, 14.65, 15.27, 15.27, 15.27, 15.34, 15.34, 15.12, 14.9, 14.84, 14.4, 13.99, 13.39, 13.39, 13.39, 12.98, 12.98, 12.98, 12.39, 12.79, 13.56, 13.56, 13.56, 13.97, 12.56, 9.86, 7.6, 8.93, 8.59, 5.2, 4.9, 6.4, 6.76, 7.9, 7.59, 7.21, 6.91, 6.99, 7.37, 7.37, 7.53, 7.53, 8.37, 8.37, 8.06, 7.37, 7.85, 9.03, 9.03, 8.56, 8.72, 8.72, 8.4, 10.62, 13.02, 16.03, 17.39, 14.79, 14.27, 16.07, 19.87, 20.02, 17.07, 15.55, 14.25, 12.3, 12.04, 11.88, 12.13, 12.29, 12.56, 13.23, 13.44, 13.18, 13.18, 12.86, 12.85, 12.43, 12.87, 12.88, 12.51, 12.51, 12.51, 12.94, 13.01, 13.01, 13.01, 13.44, 13.8, 13.7, 13.7, 13.07, 13.07, 13.39, 13.81, 14.31, 14.75, 14.75, 14.75, 14.75, 15.27, 15.55, 15.55, 15.12, 15.12, 14.68, 14.47, 14.4, 13.99, 13.81, 13.39, 13.39, 13.39, 12.98, 12.98, 12.98, 12.98, 12.98, 13.39, 13.15, 13.81, 13.81, 12.33, 9.86, 9.04, 10.09, 8.59, 6.0, 6.87, 7.54, 8.85, 8.53, 7.9, 7.9, 7.37, 6.99, 7.37, 7.81, 7.4, 7.53, 7.95, 8.37, 6.79, 8.06, 8.06, 8.6, 8.06, 8.3, 8.4, 8.8, 8.43, 9.77, 12.04, 14.6, 17.42, 16.48, 15.38, 15.65, 16.94, 14.86, 14.25, 15.36, 16.54, 15.27, 12.3, 12.56, 13.49, 13.39, 12.8, 12.8, 12.58, 12.74, 12.74, 12.85, 12.85, 12.94, 12.49, 12.87, 12.75, 12.75, 12.51, 12.51, 12.94, 13.01, 13.01, 13.44, 13.44, 13.57, 13.44, 13.44, 13.28, 13.07, 13.99, 13.99, 14.42, 14.75, 14.75, 14.75, 15.11, 15.11, 15.27, 15.27, 14.9, 14.47, 14.47, 14.4, 13.99, 13.99, 13.39, 12.98, 12.98, 13.44, 12.98, 12.98, 12.98, 13.44, 12.98, 12.74, 13.39, 13.81, 13.44, 11.18, 9.86, 10.79, 9.31, 7.58, 7.34, 7.79, 9.48, 8.85, 8.93, 8.24, 7.76, 6.99, 7.81, 7.37, 7.4, 7.53, 7.95, 7.95, 8.72, 7.47, 8.06, 8.0, 7.76, 8.63, 7.82, 8.43, 9.42, 9.77, 11.56, 12.6, 13.99, 16.96, 17.59, 18.44, 14.81, 11.87, 13.99, 16.3, 18.01, 18.77, 14.75, 13.01, 13.88, 13.82, 13.01, 12.58, 12.58, 12.74, 12.74, 12.85, 12.94, 12.93, 12.48, 12.48, 12.75, 12.75, 12.51, 12.51, 12.51, 13.01, 13.01, 13.44, 13.15, 13.02, 13.02, 13.44, 13.44, 13.28, 13.28, 14.13, 13.99, 14.42, 13.99, 14.84, 14.84, 14.84, 14.84, 14.84, 14.9, 14.47, 14.47, 13.99, 13.99, 13.99, 13.96, 13.53, 13.44, 13.44, 13.01, 13.44, 13.44, 13.44, 13.44, 13.44, 13.88, 13.88, 13.44, 11.61, 11.18, 10.41, 10.12, 8.05, 7.54, 8.3, 9.17, 9.27, 8.59, 8.18, 7.07, 6.99, 7.37, 7.81, 7.4, 7.53, 7.95, 7.95, 7.53, 7.63, 7.63, 7.6, 8.0, 8.0, 7.58, 8.43, 9.77, 9.66, 11.45, 10.85, 13.02, 15.02, 17.66, 20.01, 16.79, 12.87, 14.51, 17.58, 19.73, 21.33, 17.78, 13.11, 13.55, 13.55, 13.15, 12.53, 12.74, 12.74, 12.86, 12.85, 12.93, 12.48, 12.48, 12.48, 12.75, 12.75, 12.51, 12.51, 12.51, 12.94, 13.01, 13.01, 13.37, 13.02, 13.02, 13.02, 13.44, 13.28, 13.28, 14.13, 14.13, 13.99, 13.99, 14.84, 14.84, 14.84, 14.84, 14.9, 14.68, 14.03, 14.47, 13.99, 13.99, 14.4, 13.96, 13.53, 13.53, 13.09, 13.01, 13.01, 13.44, 13.44, 13.44, 13.44, 13.88, 13.88, 13.44, 12.42, 11.61, 11.2, 9.48, 7.54, 7.73, 7.44, 7.9, 9.3, 8.55, 7.44, 7.07, 7.2, 7.4, 7.4, 7.4, 7.12, 7.53, 8.24, 8.24, 8.3, 7.47, 7.28, 8.0, 7.81, 7.82, 8.8, 9.66, 9.66, 10.18, 11.61, 12.3, 13.91, 16.55, 18.68, 18.09, 17.01, 15.29, 17.58, 19.95, 21.25, 19.08, 13.15, 13.11, 13.11, 13.11, 12.71, 12.42, 12.42, 12.85, 12.93, 12.48, 12.03, 12.03, 12.03, 12.31, 12.31, 12.51, 12.51, 12.51, 12.51, 12.94, 12.94, 12.94, 13.37, 13.02, 13.02, 13.28, 13.28, 13.28, 13.7, 14.13, 14.13, 14.13, 14.47, 14.9, 14.9, 14.9, 14.9, 14.9, 14.47, 13.99, 13.99, 13.99, 14.4, 13.96, 13.96, 13.53, 13.53, 13.09, 13.09, 13.01, 13.44, 13.44, 13.44, 14.19, 13.88, 13.75, 12.86, 11.61, 10.04, 8.85, 7.28, 7.44, 7.59, 8.18, 7.81, 7.6, 7.6, 7.6, 7.2, 6.99, 7.31, 7.31, 7.37, 7.81, 8.24, 8.24, 7.95, 8.3, 7.28, 8.0, 7.76, 8.72, 8.72, 10.41, 9.49, 10.18, 11.37, 12.45, 13.39, 14.71, 16.95, 17.47, 17.08, 18.8, 20.19, 20.48, 21.16, 19.44, 14.61, 12.68, 13.28, 12.83, 12.48, 13.34, 12.03, 12.93, 12.47, 12.03, 11.58, 11.58, 11.58, 12.31, 12.31, 12.08, 12.51, 12.51, 12.51, 12.94, 12.94, 12.94, 13.37, 13.37, 13.37, 13.28, 13.28, 13.28, 13.7, 14.13, 14.13, 14.13, 14.13, 14.47, 14.47, 14.9, 14.9, 14.47, 14.13, 13.99, 13.99, 14.4, 14.4, 13.96, 13.96, 13.53, 13.53, 13.09, 13.09, 13.09, 13.53, 13.44, 13.75, 13.75, 14.19, 13.75, 13.31, 12.04, 10.04, 8.85, 7.28, 7.73, 7.9, 8.55, 8.0, 7.2, 7.2, 7.2, 7.63, 7.74, 7.31, 6.88, 6.88, 7.37, 8.24, 8.17, 8.37, 7.53, 8.48, 8.06, 7.63, 8.56, 9.06, 9.49, 9.66, 10.32, 11.37, 12.45, 12.98, 14.05, 15.66, 15.99, 16.1, 17.47, 20.99, 23.02, 21.92, 21.79, 16.17, 12.68, 12.83, 12.93, 13.33, 11.98, 10.56, 11.46, 11.46, 11.46, 11.02, 11.02, 11.02, 12.08, 12.08, 12.08, 12.51, 12.51, 12.51, 12.51, 12.94, 12.94, 13.37, 13.37, 13.27, 13.27, 13.7, 13.7, 13.7, 13.7, 13.7, 13.7, 13.7, 14.13, 14.13, 14.13, 14.56, 14.56, 14.13, 13.7, 14.47, 14.47, 14.47, 14.47, 13.96, 13.96, 13.77, 13.33, 13.09, 13.09, 13.09, 13.77, 13.75, 13.75, 13.44, 13.77, 13.31, 12.46, 10.04, 8.85, 7.28, 8.01, 8.22, 8.93, 8.4, 8.0, 7.2, 7.63, 7.63, 7.52, 7.52, 7.08, 7.08, 7.31, 7.74, 7.81, 8.22, 7.95, 8.06, 8.38, 8.06, 9.03, 8.72, 9.24, 9.77, 10.73, 11.37, 11.92, 12.87, 13.52, 14.71, 14.46, 14.49, 16.48, 18.05, 21.82, 22.41, 24.39, 17.67, 15.02, 12.81, 12.79, 11.88, 11.21, 10.78, 10.84, 10.41, 10.41, 10.18, 10.18, 10.18, 12.08, 12.08, 12.08, 12.08, 12.51, 12.51, 12.51, 12.94, 12.94, 12.94, 13.37, 13.27, 13.27, 13.7, 13.7, 13.7, 13.7, 13.7, 13.7, 13.7, 14.13, 14.13, 14.56, 14.56, 14.56, 14.47, 14.03, 13.59, 14.03, 14.03, 14.47, 14.4, 14.22, 13.77, 13.33, 13.33, 13.33, 13.33, 13.33, 13.33, 13.01, 13.77, 13.77, 13.31, 12.83, 10.41, 9.17, 8.01, 8.01, 9.67, 9.6, 9.2, 8.91, 8.48, 7.94, 7.94, 7.52, 7.52, 7.08, 7.08, 7.08, 7.74, 8.06, 7.6, 7.81, 7.47, 8.06, 8.06, 8.4, 8.72, 9.24, 9.36, 10.32, 11.27, 11.5, 12.45, 12.56, 12.86, 13.87, 13.89, 15.86, 18.05, 20.57, 21.59, 25.64, 20.48, 17.15, 13.8, 11.45, 11.45, 10.92, 10.84, 10.41, 9.92, 10.18, 9.77, 9.77, 9.77, 12.31, 12.31, 12.31, 12.08, 12.08, 12.51, 12.51, 12.94, 12.94, 12.94, 13.37, 13.27, 13.27, 13.7, 13.7, 13.7, 13.7, 13.7, 13.7, 13.7, 13.7, 14.47, 14.47, 14.47, 14.47, 14.47, 14.03, 13.59, 13.59, 13.59, 13.79, 14.23, 14.22, 13.77, 13.33, 13.33, 13.33, 13.33, 13.33, 13.33, 13.33, 13.33, 13.77, 13.41, 12.83, 10.41, 9.17, 8.3, 8.53, 9.67, 9.6, 9.75, 9.33, 8.91, 7.94, 7.94, 8.05, 8.05, 7.6, 6.61, 7.06, 7.21, 7.63, 7.6, 7.6, 6.99, 7.12, 7.6, 7.76, 8.72, 8.72, 9.24, 9.9, 10.85, 11.36, 11.6, 12.03, 12.03, 12.26, 13.89, 14.88, 16.1, 17.48, 21.08, 24.57, 21.63, 13.48, 9.6, 10.0, 10.85, 10.84, 10.35, 9.92, 9.66, 9.36, 9.6, 9.6, 9.6, 12.31, 11.88, 12.31, 12.31, 12.31, 12.51, 12.51, 12.51, 12.85, 12.85, 13.27, 13.27, 13.7, 13.7, 13.27, 13.27, 13.27, 13.27, 13.59, 14.03, 14.03, 14.47, 14.47, 14.47, 14.47, 14.47, 14.03, 14.23, 13.79, 13.34, 13.34, 13.34, 13.77, 13.77, 13.33, 12.88, 12.88, 12.88, 12.88, 12.88, 13.33, 13.33, 13.41, 13.41, 12.46, 10.79, 9.96, 9.62, 9.27, 9.67, 9.6, 9.75, 9.33, 8.82, 8.38, 8.49, 8.05, 8.05, 7.6, 6.71, 6.58, 7.01, 7.06, 7.47, 7.2, 7.2, 6.57, 7.2, 7.82, 7.82, 8.4, 8.4, 8.4, 10.0, 10.04, 10.66, 11.03, 10.98, 11.9, 13.27, 14.49, 14.88, 16.45, 18.84, 23.28, 16.68, 13.39, 9.2, 9.9, 10.85, 11.11, 10.6, 9.77, 9.77, 9.42, 10.0, 10.0, 10.0, 11.88, 11.88, 11.88, 12.31, 12.31, 12.31, 12.71, 12.71, 12.85, 12.85, 13.27, 13.27, 14.03, 14.03, 13.59, 13.15, 13.15, 13.59, 14.03, 14.03, 14.03, 14.03, 14.47, 14.47, 14.47, 14.47, 14.03, 14.23, 13.79, 13.79, 13.34, 13.34, 13.33, 13.33, 12.88, 12.88, 12.88, 12.88, 12.88, 12.88, 12.88, 12.9, 13.41, 13.41, 12.83, 11.6, 9.62, 9.62, 10.04, 10.4, 9.6, 9.33, 9.7, 9.26, 8.94, 8.05, 8.05, 7.6, 7.6, 7.15, 6.58, 6.51, 6.4, 7.06, 7.47, 6.4, 6.4, 6.6, 7.2, 7.15, 8.18, 8.43, 8.43, 7.81, 9.05, 9.4, 10.01, 11.03, 11.66, 12.86, 13.49, 14.46, 15.43, 17.79, 21.65, 16.58, 15.19, 10.79, 9.66, 9.9, 10.15, 10.0, 9.2, 9.42, 10.32, 10.43, 10.43, 10.43, 11.88, 11.88, 11.88, 11.88, 12.31, 12.27, 12.27, 12.71, 12.71, 13.15, 13.59, 13.59, 14.03, 13.59, 13.15, 13.15, 13.59, 13.59, 14.03, 14.03, 14.03, 14.03, 14.47, 14.47, 14.47, 14.03, 14.23, 13.79, 13.79, 13.79, 13.34, 13.34, 13.33, 13.33, 12.88, 12.88, 12.88, 12.44, 12.44, 12.88, 12.88, 12.96, 12.96, 12.96, 12.83, 11.6, 10.41, 10.41, 10.8, 10.4, 10.18, 9.75, 10.14, 9.39, 8.94, 8.49, 8.05, 7.6, 7.15, 7.15, 6.71, 6.36, 6.51, 6.4, 7.06, 6.79, 7.06, 6.0, 6.6, 7.2, 7.81, 8.06, 8.42, 7.76, 8.12, 8.73, 9.66, 10.66, 11.28, 11.88, 12.86, 13.87, 15.76, 21.94, 21.19, 18.02, 15.87, 12.87, 10.79, 9.03, 9.27, 10.04, 10.2, 10.32, 10.68, 10.68, 10.68, 10.68, 11.84, 11.84, 11.84, 11.84, 12.27, 12.27, 12.27, 12.71, 12.71, 13.15, 13.59, 13.59, 13.59, 13.59, 13.15, 13.15, 13.59, 13.59, 13.59, 14.03, 14.03, 14.03, 14.47, 14.47, 14.47, 14.23, 14.23, 13.79, 13.79, 13.34, 13.34, 13.33, 13.33, 13.33, 12.88, 12.44, 12.44, 12.44, 12.44, 12.44, 12.96, 12.96, 12.96, 12.96, 12.83, 11.6, 11.2, 11.2, 10.8, 11.03, 10.18, 10.14, 9.7, 9.39, 8.94, 8.49, 8.49, 8.05, 7.6, 7.15, 6.71, 6.36, 6.36, 6.51, 6.94, 7.01, 6.23, 5.34, 6.99, 7.2, 7.2, 7.81, 8.42, 7.68, 7.68, 8.38, 9.0, 10.01, 11.03, 11.28, 11.66, 13.27, 21.16, 22.01, 21.47, 17.99, 15.19, 12.39, 10.73, 9.81, 9.45, 10.55, 10.73, 11.11, 10.89, 10.89, 10.89, 10.89, 11.84, 11.84, 11.84, 11.84, 11.84, 12.27, 12.27, 12.71, 12.71, 13.15, 13.15, 13.15, 13.15, 13.15, 12.71, 13.15, 13.59, 13.59, 13.59, 14.03, 14.03, 14.03, 14.03, 14.23, 14.23, 14.23, 13.79, 13.79, 13.79, 13.34, 12.88, 13.33, 13.33, 13.33, 12.88, 12.44, 12.44, 12.44, 12.0, 12.52, 12.52, 12.52, 12.96, 12.96, 12.83, 11.87, 11.2, 11.2, 11.2, 11.03, 10.18, 10.14, 9.83, 9.39, 8.94, 8.49, 8.49, 8.05, 7.6, 7.6, 7.15, 6.4, 6.0, 6.36, 6.51, 6.94, 7.01, 6.17, 6.79, 6.99, 7.2, 7.82, 7.81, 7.76, 7.76, 7.76, 8.38, 9.34, 10.66, 11.03, 10.63, 12.27, 18.63, 25.9, 22.52, 17.59, 14.07, 9.88, 9.04, 9.27, 10.27, 10.95, 11.76, 11.49, 11.33, 11.33, 11.33, 11.33, 11.4, 11.4, 11.84, 11.84, 11.84, 11.84, 12.27, 12.71, 12.27, 12.71, 12.71, 12.71, 12.71, 12.71, 12.71, 13.34, 13.79, 13.79, 13.77, 13.77, 14.22, 14.22, 14.23, 14.23, 14.23, 14.23, 13.79, 13.79, 13.34, 13.33, 12.88, 13.33, 13.33, 13.33, 12.88, 12.44, 12.44, 12.44, 12.07, 12.07, 12.52, 12.52, 12.52, 12.52, 12.39, 11.87, 11.2, 11.2, 11.87, 11.03, 10.58, 10.14, 9.83, 9.39, 8.94, 8.49, 8.49, 8.05, 7.6, 7.6, 6.8, 7.15, 6.71, 7.15, 6.94, 6.51, 7.01, 6.61, 5.75, 7.31, 7.53, 7.2, 7.15, 7.41, 7.76, 7.76, 7.81, 8.79, 9.67, 10.01, 10.66, 13.26, 15.87, 23.86, 24.45, 18.63, 13.95, 10.79, 9.45, 10.01, 10.75, 10.96, 11.36, 11.46, 11.28, 11.45, 11.45, 11.45, 11.4, 11.4, 11.4, 11.84, 11.4, 11.84, 11.84, 12.27, 12.45, 12.45, 12.9, 12.9, 12.9, 12.9, 12.9, 13.34, 13.79, 13.77, 13.77, 13.77, 13.77, 14.22, 14.22, 14.22, 14.22, 13.77, 13.77, 13.33, 13.33, 13.33, 12.88, 13.33, 13.33, 12.96, 12.88, 12.44, 12.44, 12.07, 12.07, 12.07, 12.52, 12.52, 12.52, 12.52, 12.39, 11.87, 11.87, 11.87, 11.87, 11.03, 10.58, 10.28, 9.83, 9.39, 9.39, 8.94, 8.49, 8.49, 8.05, 7.37, 7.21, 7.15, 7.15, 7.15, 7.15, 6.71, 6.71, 6.58, 6.2, 7.31, 6.99, 6.55, 6.79, 7.06, 7.06, 7.41, 7.51, 7.76, 8.79, 9.4, 10.66, 12.27, 14.07, 18.97, 26.29, 20.6, 14.29, 12.18, 10.27, 9.83, 10.45, 10.93, 11.18, 11.45, 10.99, 11.14, 11.14, 11.14, 11.4, 11.4, 11.4, 11.57, 11.57, 12.01, 12.01, 12.01, 12.01, 12.45, 12.45, 12.9, 12.9, 12.9, 12.9, 13.34, 13.33, 13.77, 13.77, 13.77, 13.77, 14.3, 14.3, 14.22, 13.77, 13.77, 13.77, 13.33, 13.33, 12.88, 12.88, 13.33, 13.41, 12.96, 12.52, 12.52, 12.07, 12.07, 12.07, 12.07, 12.52, 12.52, 12.52, 12.07, 11.95, 11.91, 11.87, 11.87, 11.87, 11.46, 10.58, 10.28, 9.83, 9.83, 9.39, 8.94, 8.49, 8.05, 7.94, 7.45, 6.79, 6.4, 7.15, 7.6, 7.6, 7.15, 6.26, 6.14, 6.14, 6.9, 6.7, 6.18, 6.11, 6.45, 6.73, 7.41, 7.81, 7.81, 8.06, 9.67, 10.28, 11.83, 13.75, 17.3, 23.99, 20.12, 15.25, 13.41, 11.5, 10.01, 10.18, 10.68, 10.55, 11.2, 10.8, 11.36, 11.36, 11.36, 11.12, 11.12, 11.12, 11.57, 11.57, 11.57, 11.57, 12.01, 12.01, 12.45, 12.45, 12.9, 12.9, 12.9, 12.9, 13.33, 13.77, 13.33, 13.77, 13.77, 13.86, 14.3, 14.3, 14.22, 13.77, 13.77, 13.33, 13.33, 13.33, 12.96, 12.96, 13.41, 13.41, 12.96, 12.52, 12.52, 12.07, 12.07, 12.07, 12.07, 12.07, 12.07, 12.07, 12.07, 12.07, 11.91, 11.91, 11.91, 11.84, 10.96, 10.52, 10.28, 10.28, 9.83, 9.39, 9.39, 8.94, 8.05, 7.94, 7.45, 7.37, 7.21, 7.6, 7.6, 7.6, 7.15, 6.71, 6.51, 6.4, 5.72, 5.95, 7.07, 6.18, 6.55, 7.2, 7.44, 7.81, 7.81, 8.8, 9.81, 10.55, 11.92, 13.39, 16.25, 22.66, 19.93, 15.16, 13.64, 12.62, 11.36, 10.32, 10.0, 10.23, 10.81, 11.36, 11.5, 11.5, 11.5, 11.12, 11.12, 11.12, 11.12, 11.12, 11.57, 11.57, 12.01, 12.01, 12.45, 12.45, 12.45, 12.9, 12.9, 12.9, 13.33, 13.33, 13.33, 13.33, 13.86, 13.86, 13.77, 14.22, 14.22, 13.77, 13.33, 13.33, 13.33, 12.88, 12.96, 12.96, 13.41, 13.41, 12.96, 12.52, 12.52, 12.07, 12.07, 12.07, 12.07, 12.07, 12.07, 12.07, 12.07, 11.62, 11.62, 11.46, 11.84, 11.4, 10.52, 10.52, 10.28, 10.28, 10.28, 9.83, 9.39, 8.94, 8.49, 8.38, 7.89, 7.45, 7.37, 7.6, 8.05, 8.05, 7.6, 7.15, 6.79, 6.79, 6.32, 6.08, 7.67, 6.28, 7.67, 6.99, 7.42, 7.82, 8.4, 8.8, 9.36, 10.55, 11.5, 12.98, 15.29, 20.02, 20.04, 14.13, 13.02, 12.13, 12.03, 11.97, 10.43, 10.63, 10.8, 11.34, 11.72, 11.72, 11.72, 11.12, 11.12, 11.12, 11.12, 11.12, 11.57, 11.57, 12.01, 12.01, 12.45, 12.45, 12.45, 12.96, 12.96, 12.9, 13.33, 13.33, 13.41, 13.41, 13.86, 13.86, 13.77, 13.77, 13.77, 13.77, 13.33, 13.33, 13.33, 12.88, 12.96, 12.96, 13.41, 12.96, 12.52, 12.52, 12.52, 12.07, 12.07, 11.62, 11.62, 12.07, 12.07, 11.62, 11.62, 11.18, 11.18, 11.18, 11.18, 11.18, 10.73, 10.28, 10.28, 10.28, 10.28, 9.83, 9.83, 9.39, 8.82, 8.38, 7.94, 7.89, 8.05, 8.05, 8.05, 8.05, 7.6, 7.15, 7.6, 6.8, 6.8, 6.32, 5.72, 6.0, 8.3, 7.53, 7.76, 8.17, 8.4, 8.8, 9.36, 10.32, 11.37, 12.45, 13.52, 16.59, 18.57, 14.78, 12.62, 12.26, 12.37, 12.65, 12.74, 11.42, 10.94, 11.72, 12.3, 12.3, 12.3, 11.12, 11.12, 11.12, 11.12, 11.12, 11.57, 11.57, 12.01, 12.01, 12.45, 12.45, 12.45, 12.96, 12.96, 12.9, 13.33, 13.33, 13.41, 13.41, 13.86, 13.86, 13.77, 13.77, 13.77, 13.77, 13.33, 13.33, 13.33, 12.88, 12.96, 12.96, 13.41, 12.96, 12.52, 12.52, 12.52, 12.07, 12.07, 11.62, 11.62, 12.07, 12.07, 11.62, 11.62, 11.18, 11.18, 11.18, 11.18, 11.18, 10.73, 10.28, 10.28, 10.28, 10.28, 9.83, 9.83, 9.39, 8.82, 8.38, 7.94, 7.89, 8.05, 8.05, 8.05, 8.05, 7.6, 7.15, 7.6, 6.8, 6.8, 6.32, 5.72, 6.0, 8.3, 7.53, 7.76, 8.4, 8.4, 8.8, 9.36, 10.32, 11.27, 11.92, 12.96, 13.42, 15.14, 14.76, 12.57, 13.23, 12.87, 12.73, 13.23, 13.33, 12.79, 12.3, 12.53, 12.53, 12.53]}, {"header": {"dx": 0.06612293990616946, "dy": 0.0552356325346848, "nx": 98, "ny": 59, "la1": 35.046912555036876, "la2": 31.78801023549047, "lo1": -121.43107172385933, "lo2": -114.95102361305473, "refTime": "2026041122", "parameterCategory": 1, "parameterNumber": 3}, "data": [7.69, 7.69, 8.51, 9.5, 10.69, 10.82, 10.82, 12.07, 12.99, 13.89, 13.15, 10.63, 9.53, 8.35, 6.83, 6.59, 7.9, 8.23, 8.93, 9.3, 9.09, 9.46, 8.38, 8.02, 8.64, 8.53, 8.53, 7.78, 7.78, 7.54, 7.68, 9.42, 9.66, 7.36, 2.13, -4.29, -6.88, -7.5, -6.32, -3.6, -3.25, 0.0, 2.82, 7.78, 10.12, 10.75, 11.66, 12.17, 10.73, 11.18, 9.8, 10.43, 10.75, 10.34, 9.77, 9.25, 8.86, 8.29, 7.45, 7.45, 7.23, 6.6, 6.6, 5.62, 5.06, 4.81, 4.81, 5.91, 7.36, 9.67, 10.97, 11.26, 10.08, 9.16, 7.76, 6.6, 5.46, 4.81, 4.66, 3.55, 2.61, 2.41, 1.93, 2.46, 1.54, 0.0, 0.0, 2.28, 3.39, 6.08, 8.61, 10.38, 11.04, 10.66, 11.03, 10.3, 9.96, 9.96, 7.69, 7.69, 8.51, 9.21, 9.5, 10.69, 11.17, 12.07, 13.39, 13.89, 12.72, 12.38, 9.52, 7.59, 7.56, 7.27, 7.74, 8.93, 9.3, 8.55, 10.24, 9.86, 9.86, 9.16, 8.38, 8.31, 8.64, 7.9, 7.9, 8.22, 10.94, 13.03, 12.56, 7.59, 3.81, -3.91, -8.05, -8.24, -8.06, -4.4, -2.37, 0.0, 10.37, 11.44, 11.7, 12.96, 13.23, 12.33, 12.19, 10.58, 11.2, 11.14, 10.34, 9.3, 9.58, 8.86, 8.29, 8.29, 7.45, 7.45, 6.6, 6.6, 5.91, 4.91, 4.91, 4.76, 6.52, 8.84, 9.89, 10.18, 11.06, 10.39, 8.65, 7.2, 6.8, 5.81, 5.46, 4.81, 4.66, 3.55, 2.61, 2.41, 1.93, 2.46, 1.54, 0.0, 0.0, 2.28, 3.39, 6.08, 8.61, 10.38, 11.04, 10.66, 11.03, 10.3, 9.96, 9.96, 7.69, 7.69, 8.51, 9.21, 9.5, 11.03, 11.52, 12.45, 14.03, 14.18, 12.09, 10.18, 9.89, 8.69, 6.7, 6.59, 8.41, 9.67, 9.77, 10.8, 9.6, 9.7, 9.09, 10.99, 11.16, 9.04, 8.38, 8.42, 8.47, 9.97, 11.8, 13.62, 15.27, 11.28, 8.22, 0.0, -9.13, -8.72, -9.54, -8.58, 0.0, 10.65, 13.18, 14.88, 15.11, 15.11, 15.11, 13.11, 11.25, 11.6, 11.88, 11.06, 9.89, 9.89, 8.85, 8.99, 8.06, 8.29, 7.45, 7.45, 6.6, 6.6, 5.62, 4.91, 4.87, 7.98, 10.31, 11.47, 10.95, 9.77, 9.42, 8.74, 7.8, 7.6, 5.81, 5.81, 4.81, 4.66, 4.38, 3.32, 2.44, 2.41, 1.84, 2.46, 1.33, 0.0, 0.0, 1.28, 3.68, 7.96, 10.82, 11.53, 11.42, 11.03, 9.96, 9.56, 9.17, 9.96, 6.73, 7.69, 8.78, 8.51, 9.5, 11.03, 11.36, 12.45, 14.03, 13.75, 12.09, 10.18, 10.35, 7.9, 7.42, 7.9, 9.67, 10.55, 10.4, 10.4, 9.6, 9.32, 10.09, 9.52, 9.76, 10.99, 9.42, 8.43, 8.99, 10.38, 11.45, 12.3, 12.72, 12.74, 11.5, 10.04, 0.0, -12.07, -11.28, -4.24, 13.39, 16.79, 16.69, 15.42, 14.19, 13.46, 11.64, 11.25, 11.6, 11.2, 10.78, 10.34, 9.6, 9.6, 9.39, 8.99, 8.06, 8.29, 7.11, 6.6, 6.6, 5.91, 4.76, 4.98, 8.14, 11.94, 12.92, 12.07, 11.01, 9.78, 8.77, 7.99, 7.6, 7.37, 5.98, 4.96, 4.38, 3.46, 4.3, 2.72, 2.28, 1.63, 2.04, 1.45, 1.76, 0.0, 1.52, 2.71, 6.08, 10.69, 13.13, 11.53, 10.37, 10.01, 9.26, 9.17, 9.17, 9.96, 6.73, 7.69, 8.78, 8.78, 9.5, 10.43, 11.36, 12.45, 14.03, 13.99, 12.27, 10.18, 9.97, 8.41, 7.59, 8.75, 9.97, 11.03, 11.21, 11.34, 11.72, 10.0, 9.32, 10.48, 10.0, 10.8, 11.45, 10.88, 10.88, 9.55, 10.35, 10.78, 11.21, 10.62, 9.67, 8.73, 8.22, 4.81, 2.57, 14.91, 17.94, 16.19, 13.41, 12.27, 12.27, 12.27, 12.26, 11.9, 11.2, 10.84, 10.43, 9.7, 10.01, 9.6, 8.99, 8.99, 8.06, 7.45, 6.47, 6.6, 5.73, 5.02, 4.98, 8.31, 12.0, 13.26, 13.59, 12.75, 12.51, 11.56, 8.99, 9.0, 7.74, 7.75, 6.01, 3.8, 2.72, 2.54, 2.09, 1.72, 1.54, 0.85, 1.22, 0.0, 0.0, 0.0, 1.71, 5.8, 9.48, 12.45, 11.53, 10.01, 10.01, 9.26, 8.85, 8.72, 9.48, 10.63, 6.73, 7.69, 7.93, 8.78, 9.5, 9.8, 10.75, 12.0, 13.84, 13.94, 11.84, 10.37, 10.0, 8.58, 7.9, 9.3, 10.4, 11.03, 11.56, 12.08, 11.62, 10.99, 12.14, 12.14, 12.14, 12.14, 12.14, 12.14, 11.72, 11.3, 9.13, 9.42, 9.75, 11.3, 11.37, 10.23, 9.17, 7.44, 10.0, 16.39, 15.55, 13.44, 12.79, 13.25, 12.89, 12.89, 12.87, 12.22, 11.2, 9.8, 9.48, 9.8, 9.7, 8.84, 8.72, 8.43, 7.23, 6.6, 6.28, 5.73, 4.87, 4.1, 7.69, 11.76, 13.83, 13.88, 13.18, 12.75, 12.81, 11.95, 11.16, 8.99, 8.84, 7.6, 5.65, 4.67, 2.15, 1.96, 0.89, 0.89, 0.82, 0.0, 0.0, 0.0, 0.0, 0.0, 3.56, 9.42, 12.45, 12.36, 11.16, 9.96, 9.59, 8.85, 8.72, 9.8, 10.65, 11.39, 6.73, 7.69, 7.69, 8.78, 9.06, 10.1, 10.75, 11.44, 13.59, 13.07, 11.06, 10.05, 8.99, 8.23, 9.67, 9.77, 11.21, 11.87, 11.99, 12.08, 12.04, 13.28, 14.13, 14.66, 14.31, 13.75, 15.05, 13.75, 11.64, 9.77, 9.86, 9.16, 9.6, 9.63, 10.16, 11.53, 10.69, 9.02, 9.48, 12.21, 13.7, 12.42, 12.39, 12.95, 12.82, 12.65, 13.23, 12.16, 11.54, 10.97, 10.12, 9.8, 9.7, 8.84, 8.31, 7.59, 6.4, 5.55, 4.87, 4.87, 3.23, 6.21, 11.53, 14.05, 14.79, 14.51, 13.12, 12.01, 11.13, 11.09, 10.26, 8.25, 6.89, 6.81, 5.81, 4.67, 2.45, 1.13, 0.0, 0.0, 0.0, 0.0, 0.0, 0.0, 0.0, 0.0, 8.31, 12.35, 12.45, 11.58, 9.92, 9.2, 8.76, 8.72, 9.48, 10.22, 10.98, 11.28, 6.51, 7.69, 7.93, 8.18, 9.33, 9.33, 10.01, 11.44, 12.65, 12.58, 10.6, 9.28, 9.75, 10.21, 10.87, 10.0, 11.21, 12.42, 12.75, 12.42, 12.72, 12.56, 13.09, 15.27, 15.27, 13.99, 14.99, 14.84, 12.27, 11.16, 11.45, 11.95, 12.39, 11.87, 9.77, 10.41, 9.76, 7.06, 8.82, 10.4, 12.14, 12.39, 13.65, 15.24, 13.39, 11.35, 11.25, 12.22, 12.57, 12.46, 9.89, 10.12, 9.7, 9.24, 8.05, 7.49, 6.31, 5.11, 4.21, 3.32, 3.82, 10.62, 13.81, 15.0, 14.46, 13.85, 12.33, 10.83, 9.37, 8.03, 7.85, 5.87, 4.95, 4.67, 3.79, 3.69, 2.28, 1.13, 0.0, 0.0, 0.0, 0.0, 0.0, -2.82, 0.0, 5.8, 10.43, 11.72, 11.31, 10.03, 8.9, 8.46, 8.3, 9.06, 10.54, 10.65, 10.98, 11.28, 6.73, 6.95, 7.93, 8.18, 8.43, 9.33, 10.01, 10.01, 11.9, 11.76, 10.58, 10.25, 12.83, 12.3, 11.2, 11.44, 12.66, 12.71, 13.15, 12.66, 12.72, 13.23, 13.01, 13.88, 12.14, 11.4, 9.64, 12.45, 13.42, 11.88, 12.87, 14.99, 14.99, 12.39, 10.24, 8.22, 7.59, 8.38, 7.9, 8.73, 10.19, 11.64, 11.64, 10.99, 10.24, 9.67, 11.16, 12.09, 12.57, 12.16, 11.91, 10.51, 10.84, 9.7, 8.95, 8.18, 7.12, 6.08, 4.01, 3.06, 8.53, 13.57, 13.91, 15.24, 14.85, 13.85, 12.23, 10.32, 8.16, 6.85, 5.09, 4.12, 3.59, 2.64, 2.64, 2.09, 1.05, 0.0, 0.0, 0.0, 8.68, 0.0, 0.0, 0.0, 4.48, 8.15, 9.77, 10.48, 10.01, 8.53, 8.16, 7.36, 8.16, 10.54, 11.26, 10.92, 10.63, 11.03, 6.95, 6.95, 7.16, 8.18, 8.43, 8.43, 9.12, 10.01, 10.77, 11.2, 11.28, 11.88, 11.84, 13.27, 12.98, 12.56, 14.19, 14.66, 14.3, 12.79, 12.35, 12.79, 13.67, 13.57, 13.15, 10.38, 8.77, 9.96, 13.7, 12.27, 13.28, 15.78, 14.42, 11.5, 9.42, 6.7, 7.27, 7.21, 8.93, 9.17, 9.69, 9.17, 8.69, 8.47, 8.93, 9.81, 9.76, 9.59, 10.58, 11.87, 12.22, 12.87, 12.52, 12.26, 12.27, 11.64, 11.28, 8.85, 6.67, 6.71, 12.52, 15.56, 16.96, 15.35, 14.88, 13.8, 12.23, 10.87, 8.68, 7.0, 5.49, 5.21, 4.54, 4.4, 2.81, 0.92, 0.0, 0.0, 0.0, 8.18, 15.59, 13.39, 9.17, 6.94, 8.44, 9.36, 9.69, 9.26, 8.53, 7.44, 7.36, 7.44, 8.85, 10.65, 11.26, 10.58, 10.98, 11.03, 5.81, 6.95, 7.16, 7.16, 8.18, 8.43, 9.12, 8.85, 10.43, 11.2, 11.76, 12.51, 12.85, 13.15, 13.15, 13.88, 15.93, 15.11, 15.05, 15.27, 16.54, 16.54, 15.19, 13.19, 13.7, 11.21, 10.08, 10.08, 11.6, 11.44, 10.73, 10.79, 10.09, 8.93, 8.22, 7.26, 7.9, 8.59, 8.22, 9.8, 9.5, 8.91, 8.53, 9.67, 9.32, 8.93, 9.16, 8.73, 9.0, 10.66, 13.25, 14.85, 15.43, 15.9, 16.19, 16.19, 16.31, 12.89, 8.64, 10.6, 15.75, 17.68, 17.13, 16.31, 15.86, 15.47, 15.44, 14.42, 12.42, 10.34, 9.11, 8.1, 7.23, 5.31, 2.81, 0.0, -0.92, -1.33, 6.6, 13.59, 13.78, 13.11, 11.06, 10.12, 9.8, 9.56, 9.17, 8.46, 7.36, 6.87, 6.62, 8.07, 9.64, 10.25, 10.22, 10.58, 10.63, 11.03, 5.81, 5.81, 6.95, 7.16, 7.16, 8.18, 8.43, 8.85, 9.8, 10.79, 12.04, 12.85, 13.28, 13.07, 12.56, 11.72, 11.72, 13.15, 14.84, 14.57, 13.8, 13.42, 9.77, 11.38, 10.73, 11.6, 11.2, 7.06, 8.23, 6.32, 6.95, 7.59, 7.59, 6.11, 5.98, 6.69, 6.83, 8.22, 8.53, 8.91, 8.51, 8.51, 8.85, 9.67, 8.55, 8.21, 10.4, 10.4, 11.03, 11.85, 12.98, 15.0, 16.03, 17.87, 17.39, 17.68, 17.79, 14.88, 10.58, 13.15, 17.13, 18.11, 17.13, 16.31, 16.95, 18.23, 20.05, 19.65, 17.7, 15.86, 13.36, 11.64, 8.85, 5.28, 1.03, -1.11, -2.91, 4.66, 13.34, 12.65, 12.73, 12.29, 11.38, 11.38, 11.38, 11.22, 9.82, 7.79, 7.01, 6.21, 6.7, 7.64, 9.26, 9.92, 9.96, 10.63, 11.03, 10.66, 5.81, 5.81, 6.95, 7.16, 7.16, 7.16, 8.18, 8.58, 10.12, 11.16, 11.99, 12.87, 13.07, 13.48, 13.59, 13.59, 12.03, 11.26, 10.41, 10.12, 9.48, 7.78, 6.67, 6.67, 6.67, 6.44, 7.51, 8.85, 6.2, 5.36, 5.06, 7.15, 6.5, 6.24, 5.98, 6.4, 6.95, 7.9, 7.9, 7.14, 7.68, 8.54, 9.16, 9.32, 8.8, 10.32, 11.28, 11.45, 11.45, 11.87, 11.18, 11.87, 13.18, 14.21, 15.87, 16.48, 15.85, 14.08, 10.01, 12.8, 16.36, 16.7, 15.66, 15.66, 17.39, 18.58, 20.17, 20.96, 19.07, 18.1, 16.35, 13.91, 9.92, 5.11, 0.0, -1.48, 4.95, 13.55, 12.89, 12.14, 11.11, 10.65, 9.95, 9.67, 11.22, 9.94, 9.35, 7.59, 6.73, 6.4, 7.68, 8.37, 8.93, 9.26, 9.62, 10.37, 10.66, 10.66, 5.81, 5.81, 5.81, 6.4, 6.6, 6.6, 8.18, 7.93, 10.12, 11.09, 12.39, 13.28, 12.9, 12.89, 13.27, 13.65, 12.73, 12.65, 12.27, 10.12, 8.94, 7.36, 5.48, 5.48, 2.98, 2.72, 3.36, 4.38, 5.8, 5.4, 7.27, 7.59, 6.97, 5.98, 5.98, 6.11, 7.06, 7.74, 6.77, 5.95, 6.2, 7.27, 8.73, 10.0, 9.33, 9.89, 8.99, 10.41, 10.84, 10.88, 10.68, 10.75, 11.06, 11.62, 11.51, 10.78, 12.42, 10.61, 10.47, 11.92, 14.22, 15.38, 15.44, 15.44, 14.84, 15.0, 14.68, 15.59, 16.92, 14.08, 14.54, 15.23, 8.12, 3.25, 0.93, 8.31, 14.51, 13.59, 13.04, 11.92, 10.83, 9.52, 8.26, 7.48, 9.12, 8.29, 7.59, 6.0, 5.6, 6.36, 7.68, 8.67, 8.6, 9.34, 8.93, 10.01, 10.37, 11.03, 5.81, 5.81, 5.31, 6.4, 6.4, 7.59, 7.59, 8.18, 8.58, 11.44, 12.5, 12.5, 12.9, 12.89, 13.65, 14.03, 13.1, 12.36, 12.02, 11.06, 8.43, 6.8, 5.64, 2.98, 0.0, 0.0, 0.0, 0.0, 0.0, 13.41, 12.3, 9.58, 7.9, 6.42, 8.03, 8.18, 8.55, 7.06, 6.2, 5.21, 6.98, 9.08, 10.0, 9.6, 9.03, 9.03, 9.46, 9.46, 9.04, 9.2, 9.6, 9.75, 10.14, 8.49, 8.33, 8.4, 7.27, 5.4, 9.67, 13.19, 11.8, 12.3, 12.66, 13.07, 13.7, 12.9, 13.03, 11.29, 9.17, 9.77, 10.86, 9.76, 7.49, 2.89, 7.68, 14.18, 14.86, 13.91, 12.77, 11.53, 9.67, 8.03, 6.8, 5.63, 4.55, 6.6, 6.4, 5.8, 6.15, 7.44, 8.94, 8.97, 8.6, 8.93, 9.66, 10.66, 11.28, 11.28, 5.31, 5.31, 6.4, 6.4, 6.4, 7.36, 6.4, 7.16, 8.85, 11.44, 12.5, 12.9, 12.51, 12.16, 12.87, 12.56, 12.22, 11.7, 11.7, 11.38, 7.76, 4.95, 2.57, 0.0, 0.0, 0.0, 0.0, 0.0, 0.0, 14.3, 13.44, 12.03, 9.66, 7.27, 7.68, 7.42, 7.51, 6.95, 6.98, 6.7, 8.37, 9.1, 9.86, 9.04, 9.03, 8.6, 8.6, 8.0, 8.0, 8.05, 8.8, 8.05, 9.13, 8.4, 7.44, 4.96, 3.49, 5.7, 9.5, 10.79, 9.58, 8.93, 8.22, 8.53, 8.22, 7.73, 7.9, 8.15, 7.51, 6.9, 6.28, 4.45, 3.28, 8.8, 13.54, 14.88, 14.62, 14.01, 12.07, 10.48, 9.43, 7.91, 6.47, 5.67, 4.33, 4.3, 5.11, 6.57, 7.93, 8.58, 9.32, 9.3, 9.57, 9.92, 10.15, 10.53, 11.16, 11.16, 5.31, 5.31, 6.4, 6.2, 6.4, 6.4, 6.4, 7.16, 8.85, 11.8, 12.27, 12.9, 11.8, 12.16, 11.88, 11.38, 11.06, 12.56, 12.56, 9.92, 5.65, 2.28, 0.0, 0.0, -3.69, -10.75, -15.65, -15.65, -15.65, 16.09, 15.04, 13.27, 12.27, 10.73, 7.2, 7.42, 7.58, 8.82, 8.82, 8.03, 9.6, 8.58, 9.04, 7.76, 8.63, 8.63, 8.0, 7.44, 6.98, 6.98, 7.15, 7.15, 7.51, 7.87, 5.9, 5.9, 5.06, 6.14, 6.87, 7.56, 6.76, 5.95, 5.52, 3.98, 3.39, 4.66, 5.46, 5.46, 6.16, 5.73, 3.47, 2.3, 4.45, 11.63, 15.96, 13.74, 13.25, 12.47, 11.28, 10.59, 9.89, 8.96, 7.53, 6.57, 5.93, 5.78, 5.4, 8.78, 9.16, 9.67, 9.8, 9.27, 10.29, 10.55, 11.03, 11.12, 11.53, 11.53, 4.89, 5.92, 5.92, 5.73, 5.73, 6.4, 6.4, 6.95, 8.85, 11.8, 11.8, 11.8, 11.8, 11.54, 10.75, 9.6, 11.54, 12.87, 11.7, 7.82, 1.94, 0.0, 6.8, 5.48, 0.0, -14.42, -15.65, -15.65, 0.0, 15.69, 15.11, 14.46, 13.76, 12.51, 8.72, 6.21, 7.81, 9.13, 8.82, 8.82, 8.05, 8.0, 7.6, 8.0, 8.0, 7.81, 7.44, 6.32, 5.59, 5.59, 6.32, 7.15, 7.15, 7.15, 5.63, 4.83, 5.06, 5.06, 4.6, 5.32, 5.54, 4.4, 4.8, 3.25, 3.82, 3.52, 1.95, 2.69, 3.45, 3.53, 3.37, 4.79, 7.89, 11.16, 11.84, 10.05, 9.66, 9.85, 9.85, 8.92, 9.05, 8.0, 8.03, 7.13, 7.93, 7.89, 7.78, 8.21, 8.59, 10.12, 10.92, 10.73, 10.53, 11.5, 12.03, 11.64, 10.55, 10.55, 4.89, 5.92, 5.73, 5.73, 5.73, 6.2, 6.4, 6.95, 10.43, 11.8, 11.8, 11.8, 11.2, 11.2, 11.2, 11.38, 11.64, 12.52, 10.3, 7.38, 2.15, 11.06, 14.18, 12.22, 10.43, 7.4, 5.6, 11.7, 13.61, 12.9, 13.02, 13.39, 13.23, 13.65, 11.64, 9.32, 7.44, 7.44, 8.03, 8.94, 7.56, 7.21, 8.05, 6.98, 7.81, 6.64, 6.64, 5.59, 5.59, 5.59, 6.64, 6.32, 7.51, 6.32, 6.64, 5.86, 6.14, 6.42, 5.95, 5.32, 5.32, 4.23, 4.4, 3.45, 3.87, 3.52, 2.83, 1.67, 1.62, 2.16, 4.47, 7.4, 8.2, 8.28, 6.49, 4.32, 3.24, 4.14, 5.18, 6.5, 6.31, 6.54, 7.2, 8.05, 8.2, 8.4, 7.63, 7.28, 8.01, 9.53, 10.92, 10.98, 11.03, 11.5, 12.65, 11.95, 10.92, 10.92, 4.89, 4.89, 4.74, 4.74, 4.74, 5.15, 5.31, 6.95, 10.43, 11.2, 11.8, 11.2, 11.2, 9.6, 9.6, 10.12, 10.43, 11.64, 11.06, 9.73, 10.33, 14.65, 14.56, 15.2, 13.39, 12.71, 11.7, 11.8, 12.0, 12.35, 12.87, 12.87, 12.87, 13.46, 13.1, 10.65, 8.22, 7.59, 6.01, 5.44, 5.53, 5.82, 5.36, 5.89, 5.89, 6.42, 5.86, 5.21, 5.21, 5.59, 6.32, 6.98, 6.98, 6.98, 6.01, 5.82, 7.27, 6.18, 5.7, 5.54, 4.23, 4.05, 4.8, 4.6, 4.44, 3.52, 3.14, 2.7, 2.49, 3.11, 4.66, 5.83, 5.66, 3.38, 0.0, -1.73, -2.39, -2.39, 0.83, 3.77, 5.01, 5.51, 5.65, 7.2, 7.54, 7.13, 6.67, 7.01, 7.36, 9.23, 10.3, 11.64, 11.66, 12.03, 11.8, 11.88, 10.43, 10.43, 4.74, 4.89, 4.74, 4.74, 4.74, 5.15, 5.31, 7.58, 9.6, 11.2, 11.2, 11.2, 10.43, 9.6, 9.89, 9.89, 10.75, 10.65, 9.96, 10.75, 13.05, 14.07, 14.07, 12.37, 11.68, 11.06, 10.75, 11.06, 11.38, 12.56, 12.56, 12.56, 12.56, 12.56, 13.46, 11.68, 9.48, 8.22, 5.95, 4.96, 5.2, 5.46, 5.72, 6.4, 6.64, 6.7, 5.86, 4.2, 4.2, 5.59, 6.98, 6.98, 6.98, 6.98, 6.64, 6.79, 6.64, 6.48, 5.32, 5.7, 5.7, 4.6, 4.6, 4.6, 4.0, 4.2, 3.11, 3.98, 4.47, 4.93, 5.62, 5.8, 4.8, 0.85, -2.86, -6.64, -6.72, -5.81, -1.83, 0.84, 3.88, 5.94, 6.47, 6.47, 6.24, 6.2, 7.26, 8.72, 10.01, 8.9, 10.37, 10.98, 11.25, 10.82, 11.15, 10.43, 9.37, 9.37, 4.74, 4.74, 4.74, 4.74, 4.74, 5.15, 5.63, 7.58, 9.6, 11.2, 11.2, 10.43, 9.6, 9.6, 8.57, 8.83, 9.73, 9.16, 9.8, 9.44, 11.38, 12.22, 11.06, 12.02, 11.7, 10.87, 10.59, 11.06, 11.06, 11.38, 11.7, 11.7, 11.7, 11.7, 11.7, 10.3, 10.43, 9.17, 7.15, 6.58, 5.72, 6.01, 6.11, 6.11, 5.82, 5.3, 5.46, 5.06, 5.86, 6.98, 8.0, 7.44, 7.44, 6.98, 7.33, 6.64, 7.06, 7.27, 5.7, 5.46, 4.98, 4.78, 4.2, 4.2, 4.2, 5.21, 5.21, 5.95, 6.67, 8.05, 8.46, 10.43, 9.85, 5.4, -4.75, -4.98, -5.37, -5.26, -2.47, 0.0, 2.72, 4.85, 6.47, 6.66, 6.8, 7.54, 9.73, 11.38, 11.47, 10.24, 9.92, 10.55, 10.48, 10.48, 9.73, 9.37, 8.84, 8.84, 4.74, 4.74, 4.74, 3.65, 3.65, 3.98, 5.63, 7.58, 9.6, 11.2, 10.75, 10.75, 9.6, 8.57, 8.57, 8.83, 8.83, 9.44, 9.16, 9.44, 10.3, 10.02, 9.44, 9.73, 11.38, 10.87, 11.16, 10.87, 10.59, 10.02, 10.02, 10.3, 10.3, 10.3, 10.3, 10.3, 11.06, 9.48, 8.22, 6.87, 6.3, 6.01, 5.46, 5.82, 5.53, 5.69, 5.06, 5.86, 6.63, 7.07, 7.44, 7.44, 6.98, 6.98, 6.98, 6.64, 7.06, 7.27, 6.87, 4.94, 5.2, 4.98, 4.74, 4.98, 5.9, 6.17, 6.17, 6.17, 6.86, 7.72, 8.54, 9.22, 9.31, 7.6, 4.8, 1.94, 1.04, 0.0, 0.0, 0.0, 1.83, 3.48, 4.91, 5.79, 7.4, 10.97, 12.63, 13.01, 13.24, 13.24, 10.58, 10.18, 9.73, 9.73, 9.02, 8.2, 7.93, 7.93, 4.74, 4.74, 3.65, 3.65, 3.65, 3.98, 5.63, 7.58, 9.6, 10.43, 10.75, 9.89, 8.83, 7.82, 8.06, 8.83, 8.83, 9.44, 9.44, 9.44, 10.02, 10.3, 9.73, 9.16, 10.43, 11.38, 12.01, 11.16, 11.16, 10.59, 8.93, 8.43, 8.68, 8.68, 8.68, 8.68, 9.77, 8.66, 7.54, 6.7, 6.58, 6.58, 5.72, 5.2, 5.24, 4.95, 6.14, 6.64, 6.63, 6.98, 6.98, 6.98, 6.63, 6.63, 6.63, 6.98, 6.45, 7.4, 7.59, 6.95, 5.15, 4.94, 5.63, 5.9, 5.9, 6.77, 7.06, 6.76, 6.17, 6.59, 5.52, 6.01, 9.06, 11.58, 9.64, 5.46, 2.32, 0.0, 0.0, -2.01, -0.95, 0.0, 0.79, 3.38, 9.16, 12.63, 13.01, 13.34, 13.61, 13.4, 12.15, 10.04, 9.02, 8.29, 8.29, 8.01, 8.01, 8.01, 3.65, 3.65, 3.65, 3.65, 3.53, 3.53, 4.38, 7.58, 9.31, 10.43, 10.75, 8.83, 8.83, 8.06, 8.06, 8.83, 8.57, 8.57, 9.44, 9.73, 10.02, 10.59, 10.59, 8.68, 9.22, 9.49, 10.33, 10.61, 10.61, 9.42, 9.17, 7.2, 7.0, 6.8, 8.43, 8.43, 9.49, 9.22, 7.82, 6.7, 6.42, 5.46, 4.66, 4.66, 4.94, 4.68, 4.26, 4.46, 4.46, 4.46, 4.83, 6.95, 5.69, 6.63, 6.98, 6.98, 6.98, 6.11, 6.95, 6.95, 6.95, 5.53, 5.63, 5.9, 6.17, 6.77, 7.06, 6.86, 6.86, 4.6, 3.42, 3.58, 8.42, 12.09, 12.42, 9.6, 5.83, 0.0, -3.98, -4.17, -5.48, -4.53, -1.89, 5.62, 11.33, 12.37, 12.62, 12.98, 13.26, 13.07, 13.15, 10.71, 8.94, 8.18, 7.36, 7.36, 7.36, 7.36, 3.65, 3.65, 3.53, 3.53, 3.53, 2.4, 2.72, 7.58, 9.6, 10.43, 10.43, 8.83, 8.83, 8.29, 8.29, 8.06, 8.57, 8.57, 9.44, 9.73, 10.02, 10.59, 9.42, 9.17, 8.93, 9.49, 9.77, 10.33, 10.61, 8.74, 7.6, 7.4, 7.4, 7.0, 6.8, 6.8, 6.8, 9.49, 8.66, 5.75, 5.29, 4.6, 5.46, 4.66, 4.0, 3.8, 3.6, 3.27, 3.27, 2.98, 4.21, 5.37, 7.67, 7.67, 6.98, 7.33, 6.32, 6.01, 6.98, 6.95, 6.58, 6.87, 5.1, 5.63, 5.9, 6.77, 7.59, 7.42, 6.0, 4.3, 3.42, 3.76, 6.81, 10.34, 12.78, 12.79, 10.38, 3.77, -4.23, -7.65, -8.23, -7.28, 0.0, 12.45, 12.23, 12.65, 12.62, 12.57, 11.79, 11.38, 11.77, 11.73, 9.87, 8.84, 7.9, 7.51, 7.36, 7.36, 3.53, 3.53, 3.53, 3.53, 2.4, 2.48, 2.72, 4.52, 9.6, 10.43, 10.43, 8.83, 8.06, 8.29, 8.29, 8.06, 8.57, 8.57, 8.57, 9.73, 10.02, 10.3, 9.17, 9.42, 7.4, 7.2, 9.77, 11.38, 9.92, 8.51, 8.51, 5.98, 5.98, 6.14, 8.51, 8.28, 8.05, 9.77, 9.49, 7.69, 5.2, 5.7, 4.88, 4.66, 4.0, 3.45, 3.45, 2.54, 2.83, 3.17, 5.03, 6.18, 6.82, 6.08, 6.18, 6.01, 5.59, 5.69, 5.69, 6.32, 6.87, 6.04, 5.7, 6.11, 7.59, 7.4, 7.59, 6.15, 6.0, 5.06, 3.44, 2.72, 4.66, 6.81, 10.53, 12.96, 10.93, 7.22, 4.01, -3.82, -7.82, 0.0, 14.56, 13.75, 11.99, 11.79, 12.22, 11.79, 10.65, 10.65, 9.95, 10.34, 10.71, 9.11, 8.84, 8.05, 7.25, 7.25, 3.53, 3.53, 3.53, 2.4, 2.4, 2.48, 2.72, 4.52, 7.82, 9.6, 9.6, 8.83, 8.06, 8.29, 8.29, 8.29, 8.57, 8.57, 8.83, 9.09, 9.09, 10.3, 9.17, 8.21, 6.52, 6.52, 7.2, 7.0, 8.05, 8.28, 5.98, 5.98, 7.2, 9.66, 9.66, 11.38, 10.05, 9.77, 9.77, 8.18, 7.19, 5.95, 4.66, 4.2, 3.81, 3.81, 2.97, 2.69, 2.21, 4.46, 6.18, 6.82, 6.44, 6.11, 6.11, 5.69, 5.31, 6.01, 5.69, 5.82, 5.21, 5.46, 5.46, 6.48, 7.4, 7.9, 6.15, 4.92, 4.13, 4.17, 3.34, 2.63, 1.83, 2.02, 4.12, 4.77, 6.88, 8.82, 8.2, 3.32, 0.0, 9.58, 12.04, 13.82, 11.5, 10.9, 10.48, 10.65, 9.77, 8.99, 9.25, 9.12, 10.59, 9.23, 9.77, 8.68, 8.05, 8.05, 3.53, 3.53, 2.4, 2.4, 2.4, 2.48, 2.72, 4.52, 7.82, 9.6, 9.6, 8.83, 8.06, 8.29, 8.29, 8.29, 8.06, 8.57, 8.83, 9.09, 9.09, 7.76, 7.98, 6.52, 5.81, 3.59, 3.49, 4.3, 7.0, 7.0, 5.98, 3.9, 8.93, 11.38, 12.87, 11.38, 12.57, 11.38, 11.06, 10.02, 8.87, 7.15, 5.46, 5.46, 6.3, 4.96, 3.11, 4.05, 7.21, 6.18, 6.82, 6.44, 6.06, 6.11, 5.37, 4.95, 6.01, 6.32, 5.69, 5.82, 5.36, 4.96, 5.63, 7.27, 7.27, 6.7, 6.57, 4.92, 3.51, 2.41, 2.53, 2.63, 1.9, 0.0, 0.0, 0.0, 2.79, 8.12, 10.06, 8.14, 3.38, 5.46, 11.0, 10.18, 11.28, 9.85, 8.73, 8.31, 8.18, 7.45, 7.23, 7.11, 7.29, 8.68, 8.26, 8.53, 8.53, 8.53, 2.4, 2.4, 2.4, 2.4, 2.4, 2.48, 2.48, 4.52, 7.82, 9.6, 9.6, 8.57, 8.06, 8.29, 8.29, 8.29, 8.29, 8.83, 8.83, 7.54, 7.76, 7.54, 7.76, 6.34, 5.65, 3.59, 3.16, 3.39, 3.39, 3.79, 2.57, 3.79, 13.02, 13.99, 13.42, 12.22, 12.57, 12.57, 11.06, 11.06, 9.44, 8.01, 6.58, 5.44, 4.95, 5.46, 5.77, 9.16, 9.77, 8.18, 6.44, 5.69, 5.69, 5.69, 4.95, 5.24, 4.68, 5.24, 5.44, 4.68, 4.5, 4.74, 5.63, 6.18, 6.04, 5.9, 6.31, 6.63, 4.4, 2.47, 2.6, 4.36, 4.67, 1.94, -1.01, -1.14, 1.1, 3.59, 6.61, 8.54, 6.5, 5.32, 8.03, 8.55, 7.58, 8.18, 6.31, 4.87, 4.52, 4.38, 5.02, 4.91, 5.1, 7.32, 7.25, 7.71, 8.16, 8.16, 2.4, 2.4, 2.4, 2.4, 2.4, 2.48, 2.48, 4.52, 7.82, 9.6, 8.57, 8.57, 6.8, 7.0, 6.35, 7.0, 7.0, 7.54, 7.54, 7.54, 7.54, 7.54, 7.54, 6.16, 5.65, 5.09, 4.62, 4.5, 2.98, 1.68, 1.94, 5.81, 10.75, 12.65, 12.65, 12.65, 13.02, 12.02, 12.02, 11.06, 10.75, 9.48, 7.9, 6.64, 5.15, 5.46, 8.59, 10.09, 9.42, 7.59, 5.24, 5.69, 5.69, 5.24, 5.24, 4.42, 4.68, 4.21, 4.44, 4.44, 3.99, 4.5, 5.36, 4.56, 4.56, 4.34, 5.21, 6.16, 6.16, 4.23, 3.49, 4.8, 5.91, 5.94, 1.02, -1.28, 0.0, 2.0, 2.51, 4.9, 7.37, 8.0, 7.6, 6.81, 5.39, 4.4, 2.88, 1.77, 1.62, 2.41, 2.41, 3.01, 3.71, 4.95, 5.81, 6.9, 7.93, 7.93, 2.4, 2.4, 2.4, 2.4, 2.4, 2.48, 2.48, 4.52, 6.6, 8.57, 8.57, 8.57, 7.32, 6.8, 6.35, 7.0, 7.0, 7.0, 7.76, 7.54, 6.8, 6.8, 7.0, 5.49, 5.49, 5.09, 5.09, 4.37, 4.01, 3.1, 5.34, 9.09, 10.75, 10.75, 11.33, 11.68, 11.68, 12.02, 12.02, 12.02, 11.06, 10.12, 7.26, 6.14, 5.46, 5.32, 6.4, 8.05, 7.51, 5.46, 5.15, 5.15, 5.69, 4.87, 4.87, 4.87, 3.77, 3.99, 4.21, 4.0, 4.44, 3.6, 3.63, 4.0, 3.81, 3.63, 3.45, 4.05, 5.0, 4.9, 4.25, 4.07, 4.98, 5.04, 3.12, 0.0, 0.0, 1.77, 2.43, 3.65, 6.73, 8.8, 7.3, 5.63, 3.87, 1.6, 0.0, -0.71, 0.0, 0.84, 0.84, 2.47, 3.78, 5.18, 5.81, 6.69, 7.48, 7.48, 2.4, 2.4, 2.4, 2.4, 2.4, 2.48, 2.48, 4.52, 6.6, 8.57, 8.57, 7.32, 7.32, 6.6, 6.35, 6.35, 7.0, 7.0, 7.0, 6.8, 7.0, 7.0, 7.0, 5.34, 5.49, 4.95, 3.39, 2.98, 4.11, 5.65, 7.58, 9.12, 9.39, 10.18, 9.73, 9.73, 10.75, 10.75, 11.06, 11.06, 11.06, 10.43, 7.82, 5.7, 5.7, 5.54, 4.08, 4.55, 5.77, 4.71, 6.01, 5.69, 6.18, 5.84, 5.15, 5.15, 4.68, 3.99, 4.21, 4.0, 3.63, 3.6, 4.2, 3.8, 3.63, 3.45, 3.45, 2.69, 3.77, 3.82, 4.3, 3.39, 1.7, 1.59, 2.78, 3.85, 2.15, 1.6, 2.23, 2.96, 5.13, 6.59, 5.87, 4.75, 2.35, 0.0, -0.99, -1.91, 0.0, 0.99, 1.83, 3.34, 4.71, 6.09, 6.6, 7.45, 7.25, 7.25, 2.32, 2.32, 2.4, 2.4, 2.4, 2.48, 2.72, 4.52, 6.4, 8.57, 8.57, 7.32, 7.32, 6.6, 6.17, 6.35, 6.35, 6.8, 6.8, 7.0, 7.0, 7.0, 7.0, 5.34, 4.81, 3.39, 3.07, 2.98, 2.98, 4.24, 5.99, 7.16, 7.82, 8.06, 7.54, 8.43, 8.43, 9.73, 10.02, 10.02, 10.02, 8.43, 7.44, 5.95, 4.05, 3.92, 2.82, 4.93, 7.54, 6.64, 6.87, 6.87, 6.91, 6.18, 5.69, 5.15, 4.68, 3.99, 3.99, 3.8, 3.32, 4.37, 4.37, 4.0, 3.6, 3.45, 3.45, 3.63, 2.49, 3.53, 5.0, 4.48, 1.2, 0.0, 1.82, 5.59, 4.51, 1.62, 0.75, 0.72, 2.3, 2.91, 3.61, 3.93, 3.78, 1.02, 0.0, 0.0, 1.97, 2.62, 4.21, 5.11, 5.2, 5.28, 5.18, 6.6, 6.6, 6.6, 2.32, 2.32, 2.4, 2.4, 2.4, 2.4, 2.72, 4.52, 6.4, 8.57, 8.57, 7.32, 7.32, 5.18, 5.34, 6.35, 6.17, 6.17, 6.8, 7.0, 7.0, 7.0, 7.0, 4.95, 4.81, 2.98, 3.07, 2.98, 3.3, 4.81, 4.66, 5.81, 6.4, 6.4, 7.32, 5.99, 7.54, 8.43, 8.43, 7.76, 7.76, 7.54, 6.88, 4.08, 2.49, 2.6, 4.58, 6.7, 8.53, 7.9, 8.0, 7.64, 6.91, 6.01, 5.69, 5.15, 3.99, 3.99, 3.6, 3.8, 4.0, 4.6, 4.37, 4.0, 4.0, 4.2, 3.45, 3.49, 3.36, 3.39, 4.5, 4.65, 3.53, 1.67, 1.78, 4.55, 5.01, 3.09, 0.0, 0.0, 0.0, 1.68, 3.16, 3.98, 4.41, 3.81, 3.41, 3.36, 4.81, 5.28, 5.28, 4.98, 4.98, 4.31, 3.59, 3.71, 4.95, 4.95, 2.32, 2.32, 2.4, 2.4, 2.4, 2.4, 2.72, 3.01, 5.02, 7.1, 8.57, 7.32, 7.32, 5.81, 5.18, 5.34, 4.81, 6.17, 6.17, 7.0, 7.0, 7.0, 4.95, 4.95, 3.07, 2.98, 2.98, 3.3, 3.2, 4.66, 4.66, 5.18, 5.02, 4.87, 5.02, 5.63, 5.81, 7.54, 7.54, 7.54, 7.54, 7.54, 6.4, 4.24, 2.49, 2.82, 4.8, 8.22, 9.27, 9.7, 8.34, 8.0, 7.64, 6.32, 5.15, 4.68, 3.99, 3.99, 3.6, 2.98, 3.14, 3.27, 2.69, 2.83, 2.69, 2.58, 2.83, 2.47, 2.59, 3.36, 3.53, 4.01, 4.47, 3.39, 2.57, 2.64, 4.55, 4.66, 3.38, 2.45, 1.25, 1.89, 2.33, 3.66, 4.46, 4.71, 5.28, 5.46, 5.46, 5.63, 5.15, 4.13, 3.25, 3.25, 2.13, 2.2, 3.53, 3.53, 3.41, 3.41, 2.4, 2.4, 2.4, 2.4, 2.48, 2.72, 4.52, 7.1, 7.1, 7.32, 5.81, 5.81, 5.18, 3.69, 5.34, 5.34, 5.34, 7.0, 6.35, 4.95, 4.95, 3.07, 2.98, 2.98, 2.98, 3.3, 3.2, 4.66, 5.18, 5.18, 5.02, 4.87, 4.87, 4.87, 6.4, 7.32, 7.32, 7.54, 7.54, 7.54, 6.2, 4.58, 3.14, 3.7, 5.7, 8.59, 10.4, 10.4, 9.1, 8.37, 6.95, 6.64, 5.44, 3.99, 3.99, 3.99, 2.98, 2.83, 3.14, 2.83, 1.4, 1.95, 2.69, 2.7, 2.69, 2.7, 2.47, 3.21, 3.36, 4.01, 4.66, 5.86, 3.59, 1.77, 2.64, 3.41, 4.42, 6.22, 5.18, 3.92, 3.11, 3.82, 5.02, 5.8, 6.0, 5.67, 5.15, 5.31, 4.27, 3.36, 2.33, 1.66, 1.61, 1.46, 1.43, 2.2, 3.41, 3.41, 3.41, 2.4, 2.2, 3.25, 2.48, 3.65, 4.11, 5.02, 7.1, 5.02, 5.02, 5.02, 5.18, 3.69, 3.69, 3.69, 5.34, 5.49, 3.39, 3.39, 3.39, 3.07, 3.07, 1.51, 2.98, 3.3, 3.2, 4.66, 5.02, 5.02, 5.02, 4.87, 4.87, 4.87, 6.2, 6.4, 5.81, 5.81, 5.81, 5.99, 4.71, 4.23, 3.8, 5.1, 7.15, 10.4, 11.03, 10.24, 9.46, 7.9, 7.59, 6.01, 4.94, 3.99, 4.21, 4.21, 2.83, 2.83, 3.14, 3.14, 2.69, 1.84, 1.75, 2.58, 2.58, 2.57, 3.49, 3.49, 4.2, 4.72, 4.74, 5.61, 5.8, 3.48, 0.95, 0.95, 3.14, 4.71, 5.33, 4.15, 3.8, 4.1, 4.81, 5.2, 5.71, 5.38, 4.71, 4.13, 3.36, 2.47, 2.47, 1.61, 1.71, 1.46, 1.51, 1.43, 3.41, 3.41, 3.41, 3.53, 3.25, 3.25, 3.25, 3.36, 3.76, 4.11, 4.11, 5.81, 5.81, 5.02, 5.18, 3.58, 3.69, 3.69, 3.69, 3.69, 3.39, 1.73, 1.73, 1.51, 1.51, 1.47, 2.89, 3.2, 4.66, 5.18, 5.02, 5.02, 5.02, 4.87, 4.87, 4.87, 4.87, 4.87, 5.02, 5.63, 5.18, 5.18, 5.28, 4.23, 3.87, 5.77, 10.3, 11.99, 10.99, 10.55, 8.85, 8.53, 7.9, 6.58, 4.21, 3.99, 4.21, 3.35, 3.17, 2.83, 2.98, 3.14, 2.26, 2.69, 2.69, 2.46, 2.69, 3.32, 4.2, 4.4, 5.06, 4.44, 4.81, 5.62, 8.13, 6.94, 2.88, 0.0, 1.21, 3.18, 3.8, 4.8, 5.51, 5.09, 4.1, 4.71, 4.76, 5.02, 4.0, 4.0, 3.14, 2.39, 2.39, 1.71, 1.71, 0.86, 0.78, 1.51, 2.32, 2.32, 3.41, 3.41, 3.53, 3.25, 3.25, 3.36, 3.36, 4.52, 4.89, 4.89, 5.31, 5.81, 4.66, 4.66, 4.81, 3.69, 3.69, 3.69, 1.68, 1.68, 3.39, 3.39, 2.98, 2.89, 2.89, 3.2, 4.66, 4.66, 5.02, 4.87, 4.87, 3.36, 4.87, 4.87, 4.87, 3.36, 4.87, 5.46, 5.02, 5.18, 3.36, 3.19, 4.23, 7.19, 10.86, 12.13, 11.75, 10.91, 9.48, 8.85, 7.44, 6.87, 4.44, 3.99, 3.35, 4.21, 3.17, 2.83, 2.98, 2.98, 3.49, 2.99, 2.69, 4.0, 3.45, 3.7, 4.34, 5.06, 5.14, 4.44, 3.47, 4.58, 7.0, 9.05, 8.8, 5.42, 3.42, 3.96, 4.66, 4.79, 5.3, 5.87, 3.69, 3.25, 3.47, 3.69, 3.25, 3.14, 3.14, 2.39, 2.39, 1.71, 0.86, 0.92, 0.89, 0.89, 2.32, 2.32, 3.41, 3.41, 3.41, 3.25, 3.25, 3.36, 4.38, 4.74, 4.74, 4.89, 4.89, 5.31, 5.31, 4.24, 4.66, 4.81, 4.66, 3.3, 3.3, 3.3, 3.3, 3.3, 2.98, 2.89, 2.89, 4.66, 4.66, 4.66, 3.1, 3.01, 3.36, 3.36, 3.25, 3.36, 3.36, 3.36, 3.36, 3.36, 3.47, 3.47, 3.36, 3.32, 3.19, 6.94, 10.12, 11.28, 10.55, 9.96, 9.17, 7.73, 7.15, 5.46, 4.71, 3.99, 4.21, 3.35, 3.17, 2.83, 2.98, 2.98, 2.83, 2.54, 2.54, 3.8, 4.0, 4.0, 4.74, 5.06, 4.44, 3.51, 3.82, 4.17, 4.74, 6.93, 9.63, 10.92, 8.4, 5.15, 4.53, 5.17, 5.8, 6.67, 4.45, 2.81, 2.9, 2.9, 2.63, 3.34, 2.39, 2.39, 1.61, 1.71, 0.92, 0.96, 0.96, 0.96, 2.32, 2.32, 3.41, 3.41, 3.41, 3.53, 3.25, 3.25, 3.65, 4.74, 4.74, 4.74, 4.89, 5.31, 5.31, 4.24, 4.24, 4.66, 4.66, 3.3, 3.3, 3.3, 3.3, 2.98, 1.47, 2.81, 2.89, 4.66, 4.66, 3.2, 3.1, 3.01, 3.01, 2.91, 3.25, 3.25, 3.36, 3.36, 3.36, 3.36, 3.47, 3.47, 3.36, 1.55, 3.32, 5.6, 9.48, 10.55, 9.27, 8.93, 7.9, 6.2, 5.7, 4.96, 4.71, 3.6, 3.17, 3.17, 3.17, 2.67, 2.83, 2.06, 2.06, 3.32, 2.99, 4.37, 4.0, 5.21, 4.34, 4.4, 3.51, 3.51, 3.39, 3.32, 4.1, 4.91, 7.88, 10.56, 10.69, 8.95, 6.3, 5.17, 4.99, 5.31, 4.77, 2.63, 2.81, 2.81, 2.81, 2.54, 1.55, 1.55, 1.71, 0.92, 0.96, 0.93, 0.93, 0.93, 2.24, 2.24, 3.41, 3.41, 3.41, 3.41, 3.53, 3.53, 3.53, 3.65, 4.74, 4.74, 5.31, 5.31, 5.31, 5.48, 4.24, 4.24, 4.24, 2.89, 2.98, 2.98, 2.98, 2.98, 2.98, 2.89, 4.66, 4.66, 4.66, 3.2, 3.1, 3.1, 3.01, 3.01, 2.91, 2.91, 3.25, 3.36, 3.36, 3.36, 1.77, 3.47, 1.72, 1.61, 3.32, 6.7, 8.85, 10.19, 8.93, 7.59, 5.46, 5.21, 3.8, 3.8, 3.8, 3.6, 2.99, 2.09, 2.09, 1.84, 1.95, 2.06, 2.06, 2.98, 3.32, 4.37, 4.0, 3.45, 3.49, 3.49, 2.6, 2.59, 3.39, 4.06, 4.98, 5.02, 6.54, 8.07, 9.98, 9.76, 10.34, 8.5, 6.4, 5.64, 5.18, 4.18, 2.72, 1.9, 1.83, 0.89, 1.33, 0.93, 0.99, 1.04, 1.0, 0.97, 0.97, 0.97, 2.24, 2.24, 3.29, 3.41, 3.41, 3.41, 3.53, 3.53, 3.53, 3.65, 3.65, 3.65, 5.31, 5.31, 5.31, 5.48, 4.24, 4.24, 4.24, 4.24, 2.89, 2.89, 2.98, 2.98, 2.89, 4.24, 4.66, 4.66, 3.2, 3.2, 3.1, 3.1, 3.01, 3.01, 2.91, 2.91, 2.91, 3.01, 3.36, 1.72, 1.72, 1.77, 1.72, 1.66, 3.44, 6.7, 8.85, 10.19, 9.27, 7.9, 5.7, 4.0, 3.6, 3.6, 3.6, 2.54, 2.21, 2.09, 1.96, 1.96, 1.84, 2.06, 2.33, 3.14, 2.83, 2.83, 2.69, 2.54, 2.57, 2.47, 2.59, 3.51, 4.3, 4.06, 4.98, 4.87, 5.79, 6.59, 8.0, 9.66, 9.98, 9.99, 8.63, 6.26, 6.7, 3.47, 2.72, 1.83, 0.99, 1.48, 1.5, 1.92, 1.91, 1.91, 1.91, 1.84, 1.84, 1.84, 3.29, 3.29, 3.29, 3.41, 3.41, 3.41, 3.41, 3.53, 3.53, 3.65, 3.65, 3.98, 3.98, 4.11, 4.11, 4.11, 4.11, 4.11, 4.11, 4.11, 4.24, 4.24, 4.24, 4.37, 4.37, 4.24, 4.11, 2.89, 2.89, 2.89, 2.89, 3.1, 3.1, 1.53, 1.48, 2.91, 2.91, 2.91, 1.53, 1.72, 1.72, 3.36, 1.53, 1.66, 3.56, 6.7, 8.85, 10.19, 9.62, 8.22, 5.95, 4.2, 4.0, 3.6, 2.54, 2.54, 1.07, 1.07, 1.01, 1.01, 2.09, 2.21, 3.35, 3.52, 2.98, 2.69, 1.4, 2.69, 2.58, 3.49, 3.36, 4.44, 4.47, 4.06, 5.11, 5.15, 5.91, 6.54, 8.03, 8.86, 9.89, 9.85, 10.33, 8.97, 5.63, 2.72, 2.31, 1.97, 2.13, 2.16, 3.06, 2.94, 2.71, 2.6, 2.6, 3.39, 3.39, 3.39, 3.29, 3.29, 3.29, 3.29, 3.41, 3.41, 3.41, 3.53, 3.53, 3.53, 3.65, 3.98, 3.98, 4.11, 4.11, 4.11, 4.11, 4.11, 4.11, 4.11, 4.24, 4.24, 4.37, 4.37, 4.37, 2.89, 2.81, 2.72, 2.81, 2.81, 2.89, 3.2, 1.58, 1.53, 1.48, 1.48, 1.48, 1.48, 1.48, 1.48, 3.25, 1.53, 1.53, 1.66, 1.83, 6.94, 9.17, 9.62, 9.62, 6.45, 4.8, 4.6, 2.97, 2.83, 1.32, 1.32, 1.07, 1.07, 1.01, 1.01, 1.01, 2.21, 2.69, 3.8, 3.35, 2.99, 2.69, 2.69, 4.2, 3.49, 3.36, 4.25, 4.3, 4.33, 4.93, 4.98, 5.86, 7.23, 8.16, 8.99, 9.18, 9.85, 11.75, 10.8, 7.89, 1.86, 3.12, 3.76, 3.82, 3.82, 3.97, 2.71, 2.6, 2.71, 3.39, 4.44, 4.44, 4.44, 2.24, 2.24, 2.24, 3.29, 3.29, 3.41, 3.41, 3.53, 3.53, 3.53, 3.65, 3.98, 3.98, 4.11, 4.11, 4.11, 4.11, 4.11, 4.11, 4.11, 4.11, 2.89, 2.89, 2.89, 2.89, 2.89, 2.81, 2.72, 2.72, 2.72, 1.38, 1.42, 1.58, 1.53, 1.48, 1.48, 1.48, 1.48, 1.48, 1.48, 1.48, 1.48, 1.53, 0.0, 1.83, 6.94, 9.17, 9.96, 8.53, 6.45, 4.8, 3.25, 3.11, 2.97, 1.32, 1.32, 0.0, 0.0, 0.0, 1.1, 1.18, 2.4, 2.54, 3.8, 3.8, 2.99, 2.67, 3.8, 3.45, 3.49, 3.49, 3.36, 4.13, 4.17, 5.25, 5.8, 6.88, 7.74, 8.99, 8.99, 9.09, 9.66, 10.82, 12.65, 10.75, 7.21, 5.99, 4.8, 5.0, 4.17, 2.71, 2.82, 2.71, 3.51, 4.25, 4.8, 4.8, 4.8, 2.24, 2.16, 2.24, 2.24, 2.24, 3.41, 3.41, 3.41, 3.85, 3.85, 3.98, 3.98, 4.11, 4.11, 3.98, 3.98, 3.98, 3.98, 2.72, 2.81, 2.81, 2.89, 2.89, 2.89, 2.89, 2.89, 2.81, 1.42, 1.38, 1.33, 1.33, 1.33, 1.53, 1.53, 1.48, 1.43, 1.43, 1.43, 1.43, 1.43, 1.48, 1.48, 0.0, 0.0, 3.56, 7.19, 8.3, 8.01, 7.73, 6.45, 4.8, 3.25, 3.11, 1.47, 1.4, 0.0, 0.0, 0.0, 0.0, 0.0, 1.32, 1.4, 2.82, 2.99, 3.6, 3.6, 2.82, 3.6, 4.34, 4.34, 4.2, 4.2, 4.2, 5.0, 5.86, 6.56, 7.63, 8.45, 7.93, 8.29, 8.86, 9.09, 9.05, 10.27, 10.35, 10.42, 8.93, 4.6, 4.13, 4.17, 3.42, 3.53, 4.44, 4.44, 5.14, 5.0, 5.0, 5.0, 2.16, 2.16, 2.16, 2.24, 2.24, 2.24, 2.54, 2.54, 3.85, 3.85, 3.98, 3.98, 2.81, 2.81, 2.72, 2.63, 2.63, 2.72, 2.81, 2.81, 2.81, 2.81, 2.89, 2.89, 2.89, 2.89, 2.81, 1.42, 1.38, 1.38, 1.33, 1.33, 1.48, 1.48, 1.43, 1.43, 1.43, 1.43, 1.43, 1.43, 1.43, 1.29, 0.0, 0.0, 1.83, 5.8, 8.01, 8.01, 6.7, 5.2, 4.8, 3.11, 1.62, 1.54, 0.0, 0.0, 0.0, 0.0, 0.0, 0.0, 1.32, 1.63, 3.2, 2.82, 2.99, 3.2, 3.2, 3.77, 4.5, 5.36, 5.46, 5.06, 5.06, 5.21, 5.76, 6.84, 7.51, 7.63, 7.49, 7.23, 7.93, 8.03, 8.12, 7.28, 11.66, 12.9, 7.6, 4.32, 3.51, 4.13, 4.68, 5.0, 5.52, 5.14, 4.3, 4.01, 4.01, 4.01, 2.16, 2.16, 2.16, 2.16, 2.24, 2.45, 2.45, 2.54, 2.54, 2.63, 2.72, 2.72, 2.81, 2.72, 2.63, 2.63, 2.72, 2.72, 2.81, 2.81, 2.81, 2.81, 2.89, 2.89, 2.89, 2.81, 1.42, 1.38, 1.38, 1.38, 1.33, 1.33, 1.48, 1.48, 1.43, 1.43, 1.43, 1.38, 1.38, 1.43, 1.43, 0.0, 0.0, 0.0, 1.83, 5.8, 6.94, 6.94, 5.4, 5.2, 3.39, 3.25, 1.69, 0.0, 0.0, 0.0, 0.0, 0.0, 0.0, 0.0, 0.0, 2.12, 1.63, 3.2, 2.82, 2.26, 2.82, 3.0, 3.77, 4.5, 5.21, 5.64, 5.9, 6.04, 6.31, 6.98, 7.24, 7.38, 7.25, 7.13, 7.23, 8.16, 7.46, 7.68, 10.6, 10.81, 7.21, 5.15, 4.32, 4.92, 5.41, 5.86, 5.57, 4.3, 3.29, 3.29, 3.29, 3.29, 2.37, 2.37, 2.37, 2.37, 2.45, 2.45, 2.45, 2.54, 2.54, 2.63, 2.72, 2.72, 2.72, 2.72, 2.63, 2.63, 2.72, 2.72, 2.72, 2.81, 2.81, 2.81, 2.89, 2.89, 2.89, 1.42, 1.42, 1.38, 1.38, 1.33, 1.33, 1.48, 1.48, 1.48, 1.43, 1.38, 1.38, 1.38, 1.38, 1.38, 0.0, 0.0, 0.0, 0.0, 1.83, 5.8, 5.6, 5.6, 5.4, 3.68, 3.39, 1.69, 1.62, 0.0, 0.0, 0.0, 0.0, 0.0, 0.0, 0.0, 0.0, 2.12, 2.12, 1.63, 1.73, 1.4, 2.49, 2.29, 2.99, 3.6, 4.5, 5.21, 5.9, 6.83, 6.83, 6.7, 7.36, 7.51, 7.63, 7.25, 7.49, 8.29, 9.62, 9.91, 10.02, 9.0, 7.6, 6.2, 6.44, 6.24, 5.09, 4.87, 4.47, 3.42, 2.51, 2.51, 2.51, 2.51, 2.37, 2.37, 2.37, 2.37, 2.37, 2.45, 2.45, 2.54, 2.54, 2.63, 2.63, 2.63, 2.63, 2.63, 2.54, 2.63, 2.72, 2.72, 2.72, 2.81, 2.81, 2.81, 2.81, 1.42, 1.42, 1.42, 1.38, 1.38, 1.38, 1.33, 1.43, 1.48, 1.48, 1.48, 1.43, 1.38, 1.38, 1.38, 1.33, 0.0, 0.0, 0.0, 0.0, 0.0, 1.83, 3.96, 5.6, 5.6, 5.6, 3.68, 3.39, 1.69, 0.0, 0.0, 0.0, 0.0, 0.0, 0.0, 0.0, 0.0, 0.0, 3.2, 3.0, 2.12, 1.63, 1.73, 1.4, 1.03, 2.26, 2.99, 3.6, 4.34, 5.21, 6.04, 6.04, 6.04, 6.7, 7.64, 7.38, 7.63, 8.18, 8.18, 10.65, 14.13, 11.92, 8.8, 7.82, 7.68, 6.57, 5.41, 4.4, 3.91, 2.71, 1.77, 2.61, 2.61, 2.61, 2.61, 2.28, 2.28, 2.37, 2.37, 2.37, 2.37, 2.45, 2.54, 2.45, 2.54, 2.54, 2.54, 2.54, 2.54, 2.54, 1.33, 1.38, 1.38, 1.53, 1.53, 1.58, 1.58, 1.42, 1.42, 1.42, 1.42, 1.38, 1.38, 1.33, 1.48, 1.43, 1.48, 1.48, 1.48, 1.43, 1.38, 1.38, 1.38, 0.0, 0.0, 0.0, 0.0, 0.0, 0.0, 1.77, 3.96, 5.6, 5.6, 3.96, 3.68, 1.76, 1.69, 0.0, 0.0, 0.0, 0.0, 0.0, 0.0, 0.0, 0.0, 3.4, 0.0, 0.0, 0.0, 1.73, 1.63, 1.4, 1.1, 0.82, 2.09, 2.83, 4.5, 5.36, 5.76, 6.04, 6.04, 5.21, 6.15, 6.45, 7.51, 7.38, 9.12, 10.03, 14.1, 13.97, 10.65, 8.88, 7.19, 5.09, 3.85, 3.07, 2.19, 2.44, 1.91, 2.82, 3.82, 3.82, 3.82, 2.28, 2.28, 2.28, 2.37, 2.28, 2.37, 2.37, 2.45, 1.25, 1.25, 1.29, 1.29, 1.29, 1.29, 1.29, 1.33, 1.38, 1.53, 1.53, 1.53, 1.53, 1.58, 1.58, 1.58, 1.58, 1.53, 1.53, 1.48, 1.48, 1.48, 1.43, 1.48, 1.48, 0.0, 1.43, 1.38, 1.38, 0.0, 0.0, 0.0, 0.0, 0.0, 0.0, 0.0, 1.77, 3.96, 3.96, 3.96, 3.96, 3.68, 1.76, 0.0, 0.0, 0.0, 0.0, 0.0, 0.0, 0.0, 0.0, 1.84, 2.4, 0.0, 0.0, 0.0, 0.0, 0.0, 0.0, 1.32, 0.89, 2.09, 3.99, 4.68, 5.1, 6.18, 6.18, 5.76, 5.63, 6.04, 6.15, 6.84, 7.38, 7.36, 7.82, 9.03, 14.34, 12.59, 9.19, 7.5, 4.4, 3.02, 2.41, 2.34, 3.19, 3.82, 4.99, 4.64, 4.64, 4.64, 2.28, 2.28, 2.28, 1.16, 1.16, 1.2, 1.2, 1.2, 1.2, 1.25, 1.25, 1.29, 1.29, 1.29, 1.29, 1.33, 1.48, 1.53, 1.53, 1.53, 1.53, 0.0, 0.0, 1.58, 1.53, 1.53, 1.53, 1.48, 1.48, 1.43, 1.43, 1.48, 0.0, 0.0, 0.0, 0.0, 0.0, 0.0, 0.0, 0.0, 0.0, 0.0, 0.0, 0.0, 1.71, 1.98, 3.96, 3.96, 3.96, 1.91, 1.76, 0.0, 0.0, 0.0, 0.0, 0.0, 0.0, 0.0, 1.32, 1.49, 2.26, 3.2, 0.0, 0.0, 0.0, 0.0, 0.0, 1.23, 1.23, 4.14, 4.46, 5.15, 5.24, 5.53, 5.89, 5.76, 5.21, 5.21, 5.64, 6.45, 6.33, 6.31, 6.47, 7.29, 12.0, 11.65, 10.17, 7.15, 4.93, 3.85, 3.39, 3.29, 4.87, 5.6, 5.4, 5.25, 5.25, 5.25, 1.11, 1.11, 1.11, 1.16, 1.16, 1.16, 1.16, 1.2, 1.2, 1.25, 1.25, 1.29, 1.29, 1.29, 1.29, 1.48, 1.53, 1.48, 1.53, 1.53, 0.0, 0.0, 0.0, 1.58, 1.53, 1.53, 1.48, 1.48, 1.48, 0.0, 0.0, 0.0, 0.0, 0.0, 0.0, 0.0, 0.0, 0.0, 0.0, 0.0, 0.0, 0.0, 0.0, 0.0, 0.0, 1.98, 1.98, 1.98, 2.37, 2.19, 2.1, 0.0, 0.0, 0.0, 0.0, 0.0, 0.0, 0.0, 1.32, 1.49, 1.84, 2.4, 0.0, 0.0, 0.0, 0.0, 0.0, 1.63, 3.2, 4.29, 3.97, 4.71, 5.15, 4.68, 4.5, 4.96, 5.21, 5.21, 4.4, 5.35, 4.87, 5.11, 5.02, 6.32, 9.54, 11.07, 9.48, 7.67, 6.73, 5.25, 4.3, 5.0, 5.51, 6.31, 5.25, 4.93, 4.93, 4.93, 1.11, 1.11, 1.11, 1.11, 1.11, 1.16, 1.16, 1.2, 1.2, 1.25, 1.25, 1.25, 1.29, 1.29, 1.29, 1.48, 1.48, 1.48, 1.48, 0.0, 0.0, 1.53, 1.58, 1.58, 1.53, 1.48, 1.48, 1.48, 1.43, 0.0, 0.0, 0.0, 0.0, 0.0, 0.0, 0.0, 0.0, 0.0, 0.0, 0.0, 0.0, 0.0, 0.0, 0.0, 0.0, 0.0, 1.91, 2.37, 2.28, 2.1, 2.1, 0.0, 0.0, 0.0, 0.0, 0.0, 0.0, 0.0, 1.4, 1.58, 1.49, 1.84, 0.0, 0.0, 0.0, 0.0, 0.0, 2.26, 2.26, 4.22, 4.56, 4.6, 5.03, 4.6, 3.99, 4.12, 4.34, 4.2, 4.4, 4.25, 4.87, 4.93, 4.87, 6.3, 8.9, 11.79, 9.42, 8.68, 7.58, 6.88, 6.98, 6.08, 5.72, 5.4, 5.29, 4.39, 4.39, 4.39, 1.11, 1.11, 1.11, 1.11, 1.11, 1.16, 1.16, 1.2, 1.2, 1.25, 1.25, 1.25, 0.0, 0.0, 1.29, 1.48, 1.48, 0.0, 0.0, 0.0, 0.0, 1.53, 1.53, 1.53, 1.53, 1.48, 1.48, 1.48, 1.43, 0.0, 0.0, 0.0, 0.0, 0.0, 0.0, 0.0, 0.0, 0.0, 0.0, 0.0, 0.0, 0.0, 0.0, 0.0, 0.0, 0.0, 0.0, 0.0, 0.0, 0.0, 0.0, 0.0, 0.0, 0.0, 0.0, 0.0, 0.0, 1.47, 1.4, 1.32, 1.58, 0.0, 0.0, 0.0, 0.0, 0.0, 0.0, 0.0, 3.4, 3.4, 4.22, 4.29, 3.0, 3.32, 2.83, 3.45, 3.63, 4.2, 4.4, 4.25, 4.3, 4.06, 4.98, 5.91, 8.78, 11.61, 10.84, 9.25, 8.99, 8.83, 8.43, 7.43, 7.03, 5.1, 4.39, 4.1, 4.1, 4.1, 1.11, 1.11, 1.11, 1.11, 1.11, 1.16, 1.16, 1.2, 1.2, 1.25, 1.25, 1.25, 0.0, 0.0, 1.29, 1.48, 1.48, 0.0, 0.0, 0.0, 0.0, 1.53, 1.53, 1.53, 1.53, 1.48, 1.48, 1.48, 1.43, 0.0, 0.0, 0.0, 0.0, 0.0, 0.0, 0.0, 0.0, 0.0, 0.0, 0.0, 0.0, 0.0, 0.0, 0.0, 0.0, 0.0, 0.0, 0.0, 0.0, 0.0, 0.0, 0.0, 0.0, 0.0, 0.0, 0.0, 0.0, 1.47, 1.4, 1.32, 1.58, 0.0, 0.0, 0.0, 0.0, 0.0, 0.0, 0.0, 3.4, 3.4, 4.22, 4.29, 3.0, 3.32, 2.83, 3.45, 4.2, 4.2, 4.4, 4.25, 4.3, 4.33, 5.11, 6.05, 8.05, 11.1, 11.6, 10.05, 9.92, 9.66, 9.09, 9.16, 8.2, 6.4, 4.1, 3.34, 3.34, 3.34]}]